<?xml version="1.0" encoding="UTF-8" standalone="no" ?>
<gpx xmlns="http://www.topografix.com/GPX/1/1" xmlns:xsi="http://www.w3.org/2001/XMLSchema-instance" xsi:schemaLocation="http://www.topografix.com/GPX/1/1 http://www.topografix.com/GPX/1/1/gpx.xsd" version="1.1" creator="VisuGPX - https://www.visugpx.com">
  <metadata>
    <name>033SG70-8205133</name>
    <desc><![CDATA[
05 03 2020]]></desc>
  </metadata>
  <trk>
    <name><![CDATA[033SG70-8205133]]></name>
    <trkseg>
      <trkpt lat="46.69891" lon="-1.93418">
        <ele>4</ele>
        <time>2018-03-20T21:33:21Z</time>
      </trkpt>
      <trkpt lat="46.69895" lon="-1.93414">
        <ele>4</ele>
        <time>2018-03-20T21:34:21Z</time>
      </trkpt>
      <trkpt lat="46.69919" lon="-1.93404">
        <ele>3</ele>
        <time>2018-03-20T21:35:21Z</time>
      </trkpt>
      <trkpt lat="46.69956" lon="-1.93401">
        <ele>3</ele>
        <time>2018-03-20T21:36:21Z</time>
      </trkpt>
      <trkpt lat="46.69974" lon="-1.93384">
        <ele>3</ele>
        <time>2018-03-20T21:37:21Z</time>
      </trkpt>
      <trkpt lat="46.69984" lon="-1.9338">
        <ele>3</ele>
        <time>2018-03-20T21:38:21Z</time>
      </trkpt>
      <trkpt lat="46.70018" lon="-1.93395">
        <ele>3</ele>
        <time>2018-03-20T21:39:21Z</time>
      </trkpt>
      <trkpt lat="46.70034" lon="-1.93411">
        <ele>3</ele>
        <time>2018-03-20T21:40:21Z</time>
      </trkpt>
      <trkpt lat="46.70045" lon="-1.93416">
        <ele>2</ele>
        <time>2018-03-20T21:41:21Z</time>
      </trkpt>
      <trkpt lat="46.70048" lon="-1.93421">
        <ele>2</ele>
        <time>2018-03-20T21:42:21Z</time>
      </trkpt>
      <trkpt lat="46.70055" lon="-1.93423">
        <ele>2</ele>
        <time>2018-03-20T21:43:21Z</time>
      </trkpt>
      <trkpt lat="46.70062" lon="-1.93421">
        <ele>2</ele>
        <time>2018-03-20T21:44:21Z</time>
      </trkpt>
      <trkpt lat="46.70066" lon="-1.93416">
        <ele>2</ele>
        <time>2018-03-20T21:45:21Z</time>
      </trkpt>
      <trkpt lat="46.7009" lon="-1.93413">
        <ele>2</ele>
        <time>2018-03-20T21:46:21Z</time>
      </trkpt>
      <trkpt lat="46.70086" lon="-1.93406">
        <ele>2</ele>
        <time>2018-03-20T21:47:21Z</time>
      </trkpt>
      <trkpt lat="46.70113" lon="-1.93385">
        <ele>2</ele>
        <time>2018-03-20T21:48:21Z</time>
      </trkpt>
      <trkpt lat="46.70116" lon="-1.93375">
        <ele>2</ele>
        <time>2018-03-20T21:49:21Z</time>
      </trkpt>
      <trkpt lat="46.70124" lon="-1.93369">
        <ele>1</ele>
        <time>2018-03-20T21:50:21Z</time>
      </trkpt>
      <trkpt lat="46.70131" lon="-1.93369">
        <ele>2</ele>
        <time>2018-03-20T21:51:21Z</time>
      </trkpt>
      <trkpt lat="46.70142" lon="-1.93375">
        <ele>1</ele>
        <time>2018-03-20T21:52:21Z</time>
      </trkpt>
      <trkpt lat="46.70164" lon="-1.93377">
        <ele>1</ele>
        <time>2018-03-20T21:53:21Z</time>
      </trkpt>
      <trkpt lat="46.7018" lon="-1.93369">
        <ele>1</ele>
        <time>2018-03-20T21:54:21Z</time>
      </trkpt>
      <trkpt lat="46.70197" lon="-1.93355">
        <ele>1</ele>
        <time>2018-03-20T21:55:21Z</time>
      </trkpt>
      <trkpt lat="46.70215" lon="-1.93331">
        <ele>1</ele>
        <time>2018-03-20T21:56:21Z</time>
      </trkpt>
      <trkpt lat="46.70238" lon="-1.93293">
        <ele>2</ele>
        <time>2018-03-20T21:57:21Z</time>
      </trkpt>
      <trkpt lat="46.70253" lon="-1.93277">
        <ele>2</ele>
        <time>2018-03-20T21:58:21Z</time>
      </trkpt>
      <trkpt lat="46.70278" lon="-1.93262">
        <ele>2</ele>
        <time>2018-03-20T21:59:21Z</time>
      </trkpt>
      <trkpt lat="46.70298" lon="-1.93246">
        <ele>2</ele>
        <time>2018-03-20T22:00:21Z</time>
      </trkpt>
      <trkpt lat="46.70305" lon="-1.93235">
        <ele>2</ele>
        <time>2018-03-20T22:01:21Z</time>
      </trkpt>
      <trkpt lat="46.70308" lon="-1.93226">
        <ele>2</ele>
        <time>2018-03-20T22:02:21Z</time>
      </trkpt>
      <trkpt lat="46.70389" lon="-1.93248">
        <ele>3</ele>
        <time>2018-03-20T22:03:21Z</time>
      </trkpt>
      <trkpt lat="46.70432" lon="-1.93269">
        <ele>3</ele>
        <time>2018-03-20T22:04:21Z</time>
      </trkpt>
      <trkpt lat="46.70449" lon="-1.93272">
        <ele>3</ele>
        <time>2018-03-20T22:05:21Z</time>
      </trkpt>
      <trkpt lat="46.70471" lon="-1.9327">
        <ele>3</ele>
        <time>2018-03-20T22:06:21Z</time>
      </trkpt>
      <trkpt lat="46.7054" lon="-1.93222">
        <ele>5</ele>
        <time>2018-03-20T22:07:21Z</time>
      </trkpt>
      <trkpt lat="46.70562" lon="-1.93215">
        <ele>5</ele>
        <time>2018-03-20T22:08:21Z</time>
      </trkpt>
      <trkpt lat="46.70651" lon="-1.932">
        <ele>7</ele>
        <time>2018-03-20T22:09:21Z</time>
      </trkpt>
      <trkpt lat="46.70707" lon="-1.93212">
        <ele>8</ele>
        <time>2018-03-20T22:10:21Z</time>
      </trkpt>
      <trkpt lat="46.70707" lon="-1.93212">
        <ele>8</ele>
        <time>2018-03-20T22:11:21Z</time>
      </trkpt>
      <trkpt lat="46.70722" lon="-1.93216">
        <ele>8</ele>
        <time>2018-03-20T22:12:21Z</time>
      </trkpt>
      <trkpt lat="46.70749" lon="-1.93214">
        <ele>8</ele>
        <time>2018-03-20T22:13:21Z</time>
      </trkpt>
      <trkpt lat="46.70773" lon="-1.93201">
        <ele>8</ele>
        <time>2018-03-20T22:14:21Z</time>
      </trkpt>
      <trkpt lat="46.70811" lon="-1.93172">
        <ele>9</ele>
        <time>2018-03-20T22:15:21Z</time>
      </trkpt>
      <trkpt lat="46.70829" lon="-1.9317">
        <ele>9</ele>
        <time>2018-03-20T22:16:21Z</time>
      </trkpt>
      <trkpt lat="46.70957" lon="-1.93188">
        <ele>7</ele>
        <time>2018-03-20T22:17:21Z</time>
      </trkpt>
      <trkpt lat="46.71006" lon="-1.93182">
        <ele>7</ele>
        <time>2018-03-20T22:18:21Z</time>
      </trkpt>
      <trkpt lat="46.7103" lon="-1.93175">
        <ele>6</ele>
        <time>2018-03-20T22:19:21Z</time>
      </trkpt>
      <trkpt lat="46.71043" lon="-1.93165">
        <ele>7</ele>
        <time>2018-03-20T22:20:21Z</time>
      </trkpt>
      <trkpt lat="46.71142" lon="-1.9305">
        <ele>7</ele>
        <time>2018-03-20T22:21:21Z</time>
      </trkpt>
      <trkpt lat="46.71159" lon="-1.93036">
        <ele>8</ele>
        <time>2018-03-20T22:22:21Z</time>
      </trkpt>
      <trkpt lat="46.71172" lon="-1.93031">
        <ele>7</ele>
        <time>2018-03-20T22:23:21Z</time>
      </trkpt>
      <trkpt lat="46.71229" lon="-1.93029">
        <ele>5</ele>
        <time>2018-03-20T22:24:21Z</time>
      </trkpt>
      <trkpt lat="46.7124" lon="-1.93023">
        <ele>5</ele>
        <time>2018-03-20T22:25:21Z</time>
      </trkpt>
      <trkpt lat="46.71248" lon="-1.9301">
        <ele>5</ele>
        <time>2018-03-20T22:26:21Z</time>
      </trkpt>
      <trkpt lat="46.71252" lon="-1.92996">
        <ele>5</ele>
        <time>2018-03-20T22:27:21Z</time>
      </trkpt>
      <trkpt lat="46.71262" lon="-1.9294">
        <ele>4</ele>
        <time>2018-03-20T22:28:21Z</time>
      </trkpt>
      <trkpt lat="46.7127" lon="-1.92871">
        <ele>3</ele>
        <time>2018-03-20T22:29:21Z</time>
      </trkpt>
      <trkpt lat="46.71307" lon="-1.9269">
        <ele>6</ele>
        <time>2018-03-20T22:30:21Z</time>
      </trkpt>
      <trkpt lat="46.71304" lon="-1.9264">
        <ele>8</ele>
        <time>2018-03-20T22:31:21Z</time>
      </trkpt>
      <trkpt lat="46.71307" lon="-1.92619">
        <ele>8</ele>
        <time>2018-03-20T22:32:21Z</time>
      </trkpt>
      <trkpt lat="46.71331" lon="-1.92519">
        <ele>8</ele>
        <time>2018-03-20T22:33:21Z</time>
      </trkpt>
      <trkpt lat="46.71332" lon="-1.92495">
        <ele>8</ele>
        <time>2018-03-20T22:34:21Z</time>
      </trkpt>
      <trkpt lat="46.71326" lon="-1.92419">
        <ele>9</ele>
        <time>2018-03-20T22:35:21Z</time>
      </trkpt>
      <trkpt lat="46.71319" lon="-1.92381">
        <ele>9</ele>
        <time>2018-03-20T22:36:21Z</time>
      </trkpt>
      <trkpt lat="46.7131" lon="-1.92355">
        <ele>9</ele>
        <time>2018-03-20T22:37:21Z</time>
      </trkpt>
      <trkpt lat="46.71347" lon="-1.92341">
        <ele>8</ele>
        <time>2018-03-20T22:38:21Z</time>
      </trkpt>
      <trkpt lat="46.71416" lon="-1.9232">
        <ele>5</ele>
        <time>2018-03-20T22:39:21Z</time>
      </trkpt>
      <trkpt lat="46.71425" lon="-1.92312">
        <ele>5</ele>
        <time>2018-03-20T22:40:21Z</time>
      </trkpt>
      <trkpt lat="46.71428" lon="-1.92303">
        <ele>5</ele>
        <time>2018-03-20T22:41:21Z</time>
      </trkpt>
      <trkpt lat="46.71474" lon="-1.92136">
        <ele>6</ele>
        <time>2018-03-20T22:42:21Z</time>
      </trkpt>
      <trkpt lat="46.71488" lon="-1.92069">
        <ele>6</ele>
        <time>2018-03-20T22:43:21Z</time>
      </trkpt>
      <trkpt lat="46.71515" lon="-1.919">
        <ele>8</ele>
        <time>2018-03-20T22:44:21Z</time>
      </trkpt>
      <trkpt lat="46.71537" lon="-1.91824">
        <ele>8</ele>
        <time>2018-03-20T22:45:21Z</time>
      </trkpt>
      <trkpt lat="46.71567" lon="-1.91742">
        <ele>7</ele>
        <time>2018-03-20T22:46:21Z</time>
      </trkpt>
      <trkpt lat="46.71629" lon="-1.91589">
        <ele>4</ele>
        <time>2018-03-20T22:47:21Z</time>
      </trkpt>
      <trkpt lat="46.71648" lon="-1.91568">
        <ele>4</ele>
        <time>2018-03-20T22:48:21Z</time>
      </trkpt>
      <trkpt lat="46.71738" lon="-1.91523">
        <ele>2</ele>
        <time>2018-03-20T22:49:21Z</time>
      </trkpt>
      <trkpt lat="46.71756" lon="-1.91507">
        <ele>2</ele>
        <time>2018-03-20T22:50:21Z</time>
      </trkpt>
      <trkpt lat="46.71766" lon="-1.9149">
        <ele>2</ele>
        <time>2018-03-20T22:51:21Z</time>
      </trkpt>
      <trkpt lat="46.71772" lon="-1.91461">
        <ele>2</ele>
        <time>2018-03-20T22:52:21Z</time>
      </trkpt>
      <trkpt lat="46.71779" lon="-1.91389">
        <ele>1</ele>
        <time>2018-03-20T22:53:21Z</time>
      </trkpt>
      <trkpt lat="46.71785" lon="-1.91363">
        <ele>1</ele>
        <time>2018-03-20T22:54:21Z</time>
      </trkpt>
      <trkpt lat="46.71819" lon="-1.91247">
        <ele>2</ele>
        <time>2018-03-20T22:55:21Z</time>
      </trkpt>
      <trkpt lat="46.71848" lon="-1.91108">
        <ele>2</ele>
        <time>2018-03-20T22:56:21Z</time>
      </trkpt>
      <trkpt lat="46.71852" lon="-1.91068">
        <ele>2</ele>
        <time>2018-03-20T22:57:21Z</time>
      </trkpt>
      <trkpt lat="46.71852" lon="-1.91068">
        <ele>2</ele>
        <time>2018-03-20T22:58:21Z</time>
      </trkpt>
      <trkpt lat="46.71851" lon="-1.9102">
        <ele>3</ele>
        <time>2018-03-20T22:59:21Z</time>
      </trkpt>
      <trkpt lat="46.71826" lon="-1.90788">
        <ele>6</ele>
        <time>2018-03-20T23:00:21Z</time>
      </trkpt>
      <trkpt lat="46.71796" lon="-1.9066">
        <ele>5</ele>
        <time>2018-03-20T23:01:21Z</time>
      </trkpt>
      <trkpt lat="46.71792" lon="-1.90605">
        <ele>6</ele>
        <time>2018-03-20T23:02:21Z</time>
      </trkpt>
      <trkpt lat="46.71795" lon="-1.90567">
        <ele>7</ele>
        <time>2018-03-20T23:03:21Z</time>
      </trkpt>
      <trkpt lat="46.71841" lon="-1.9045">
        <ele>5</ele>
        <time>2018-03-20T23:04:21Z</time>
      </trkpt>
      <trkpt lat="46.71849" lon="-1.90419">
        <ele>4</ele>
        <time>2018-03-20T23:05:21Z</time>
      </trkpt>
      <trkpt lat="46.71853" lon="-1.90331">
        <ele>6</ele>
        <time>2018-03-20T23:06:21Z</time>
      </trkpt>
      <trkpt lat="46.71868" lon="-1.90309">
        <ele>6</ele>
        <time>2018-03-20T23:07:21Z</time>
      </trkpt>
      <trkpt lat="46.71881" lon="-1.90264">
        <ele>7</ele>
        <time>2018-03-20T23:08:21Z</time>
      </trkpt>
      <trkpt lat="46.71886" lon="-1.90228">
        <ele>8</ele>
        <time>2018-03-20T23:09:21Z</time>
      </trkpt>
      <trkpt lat="46.71895" lon="-1.90181">
        <ele>8</ele>
        <time>2018-03-20T23:10:21Z</time>
      </trkpt>
      <trkpt lat="46.71825" lon="-1.90132">
        <ele>10</ele>
        <time>2018-03-20T23:11:21Z</time>
      </trkpt>
      <trkpt lat="46.71765" lon="-1.90081">
        <ele>11</ele>
        <time>2018-03-20T23:12:21Z</time>
      </trkpt>
      <trkpt lat="46.7161" lon="-1.89938">
        <ele>13</ele>
        <time>2018-03-20T23:13:21Z</time>
      </trkpt>
      <trkpt lat="46.71556" lon="-1.8991">
        <ele>13</ele>
        <time>2018-03-20T23:14:21Z</time>
      </trkpt>
      <trkpt lat="46.71519" lon="-1.89871">
        <ele>13</ele>
        <time>2018-03-20T23:15:21Z</time>
      </trkpt>
      <trkpt lat="46.71494" lon="-1.89835">
        <ele>13</ele>
        <time>2018-03-20T23:16:21Z</time>
      </trkpt>
      <trkpt lat="46.71385" lon="-1.89657">
        <ele>14</ele>
        <time>2018-03-20T23:17:21Z</time>
      </trkpt>
      <trkpt lat="46.71351" lon="-1.8958">
        <ele>14</ele>
        <time>2018-03-20T23:18:21Z</time>
      </trkpt>
      <trkpt lat="46.71348" lon="-1.89571">
        <ele>14</ele>
        <time>2018-03-20T23:19:21Z</time>
      </trkpt>
      <trkpt lat="46.71394" lon="-1.89536">
        <ele>15</ele>
        <time>2018-03-20T23:20:21Z</time>
      </trkpt>
      <trkpt lat="46.71429" lon="-1.89519">
        <ele>15</ele>
        <time>2018-03-20T23:21:21Z</time>
      </trkpt>
      <trkpt lat="46.71479" lon="-1.89508">
        <ele>15</ele>
        <time>2018-03-20T23:22:21Z</time>
      </trkpt>
      <trkpt lat="46.71481" lon="-1.89495">
        <ele>15</ele>
        <time>2018-03-20T23:23:21Z</time>
      </trkpt>
      <trkpt lat="46.71488" lon="-1.89488">
        <ele>15</ele>
        <time>2018-03-20T23:24:21Z</time>
      </trkpt>
      <trkpt lat="46.71489" lon="-1.89466">
        <ele>15</ele>
        <time>2018-03-20T23:25:21Z</time>
      </trkpt>
      <trkpt lat="46.71469" lon="-1.89379">
        <ele>16</ele>
        <time>2018-03-20T23:26:21Z</time>
      </trkpt>
      <trkpt lat="46.71456" lon="-1.89331">
        <ele>16</ele>
        <time>2018-03-20T23:27:21Z</time>
      </trkpt>
      <trkpt lat="46.71397" lon="-1.89163">
        <ele>18</ele>
        <time>2018-03-20T23:28:21Z</time>
      </trkpt>
      <trkpt lat="46.71342" lon="-1.89046">
        <ele>19</ele>
        <time>2018-03-20T23:29:21Z</time>
      </trkpt>
      <trkpt lat="46.71241" lon="-1.88813">
        <ele>22</ele>
        <time>2018-03-20T23:30:21Z</time>
      </trkpt>
      <trkpt lat="46.71204" lon="-1.88705">
        <ele>23</ele>
        <time>2018-03-20T23:31:21Z</time>
      </trkpt>
      <trkpt lat="46.71188" lon="-1.88651">
        <ele>23</ele>
        <time>2018-03-20T23:32:21Z</time>
      </trkpt>
      <trkpt lat="46.7116" lon="-1.88541">
        <ele>24</ele>
        <time>2018-03-20T23:33:21Z</time>
      </trkpt>
      <trkpt lat="46.71129" lon="-1.88414">
        <ele>24</ele>
        <time>2018-03-20T23:34:21Z</time>
      </trkpt>
      <trkpt lat="46.71124" lon="-1.88381">
        <ele>24</ele>
        <time>2018-03-20T23:35:21Z</time>
      </trkpt>
      <trkpt lat="46.71124" lon="-1.88381">
        <ele>24</ele>
        <time>2018-03-20T23:36:21Z</time>
      </trkpt>
      <trkpt lat="46.71122" lon="-1.88332">
        <ele>25</ele>
        <time>2018-03-20T23:37:21Z</time>
      </trkpt>
      <trkpt lat="46.71126" lon="-1.88237">
        <ele>26</ele>
        <time>2018-03-20T23:38:21Z</time>
      </trkpt>
      <trkpt lat="46.71124" lon="-1.88202">
        <ele>26</ele>
        <time>2018-03-20T23:39:21Z</time>
      </trkpt>
      <trkpt lat="46.71117" lon="-1.88159">
        <ele>26</ele>
        <time>2018-03-20T23:40:21Z</time>
      </trkpt>
      <trkpt lat="46.711" lon="-1.8809">
        <ele>27</ele>
        <time>2018-03-20T23:41:21Z</time>
      </trkpt>
      <trkpt lat="46.71083" lon="-1.88039">
        <ele>27</ele>
        <time>2018-03-20T23:42:21Z</time>
      </trkpt>
      <trkpt lat="46.70943" lon="-1.87665">
        <ele>29</ele>
        <time>2018-03-20T23:43:21Z</time>
      </trkpt>
      <trkpt lat="46.709" lon="-1.87555">
        <ele>30</ele>
        <time>2018-03-20T23:44:21Z</time>
      </trkpt>
      <trkpt lat="46.70875" lon="-1.87503">
        <ele>29</ele>
        <time>2018-03-20T23:45:21Z</time>
      </trkpt>
      <trkpt lat="46.70822" lon="-1.87413">
        <ele>28</ele>
        <time>2018-03-20T23:46:21Z</time>
      </trkpt>
      <trkpt lat="46.70759" lon="-1.87294">
        <ele>29</ele>
        <time>2018-03-20T23:47:21Z</time>
      </trkpt>
      <trkpt lat="46.707" lon="-1.87167">
        <ele>29</ele>
        <time>2018-03-20T23:48:21Z</time>
      </trkpt>
      <trkpt lat="46.70665" lon="-1.87106">
        <ele>29</ele>
        <time>2018-03-20T23:49:21Z</time>
      </trkpt>
      <trkpt lat="46.70576" lon="-1.86966">
        <ele>31</ele>
        <time>2018-03-20T23:50:21Z</time>
      </trkpt>
      <trkpt lat="46.70553" lon="-1.86933">
        <ele>30</ele>
        <time>2018-03-20T23:51:21Z</time>
      </trkpt>
      <trkpt lat="46.70484" lon="-1.86857">
        <ele>28</ele>
        <time>2018-03-20T23:52:21Z</time>
      </trkpt>
      <trkpt lat="46.70475" lon="-1.86844">
        <ele>28</ele>
        <time>2018-03-20T23:53:21Z</time>
      </trkpt>
      <trkpt lat="46.70469" lon="-1.86827">
        <ele>28</ele>
        <time>2018-03-20T23:54:21Z</time>
      </trkpt>
      <trkpt lat="46.70468" lon="-1.86796">
        <ele>29</ele>
        <time>2018-03-20T23:55:21Z</time>
      </trkpt>
      <trkpt lat="46.7053" lon="-1.8641">
        <ele>30</ele>
        <time>2018-03-20T23:56:21Z</time>
      </trkpt>
      <trkpt lat="46.70535" lon="-1.86352">
        <ele>29</ele>
        <time>2018-03-20T23:57:21Z</time>
      </trkpt>
      <trkpt lat="46.70533" lon="-1.8631">
        <ele>29</ele>
        <time>2018-03-20T23:58:21Z</time>
      </trkpt>
      <trkpt lat="46.70524" lon="-1.86203">
        <ele>29</ele>
        <time>2018-03-20T23:59:21Z</time>
      </trkpt>
      <trkpt lat="46.70517" lon="-1.86077">
        <ele>29</ele>
        <time>2018-03-21T00:00:21Z</time>
      </trkpt>
      <trkpt lat="46.70514" lon="-1.85882">
        <ele>28</ele>
        <time>2018-03-21T00:01:21Z</time>
      </trkpt>
      <trkpt lat="46.70496" lon="-1.85718">
        <ele>27</ele>
        <time>2018-03-21T00:02:21Z</time>
      </trkpt>
      <trkpt lat="46.70497" lon="-1.85691">
        <ele>28</ele>
        <time>2018-03-21T00:03:21Z</time>
      </trkpt>
      <trkpt lat="46.70502" lon="-1.85628">
        <ele>28</ele>
        <time>2018-03-21T00:04:21Z</time>
      </trkpt>
      <trkpt lat="46.70504" lon="-1.85575">
        <ele>27</ele>
        <time>2018-03-21T00:05:21Z</time>
      </trkpt>
      <trkpt lat="46.70501" lon="-1.85534">
        <ele>26</ele>
        <time>2018-03-21T00:06:21Z</time>
      </trkpt>
      <trkpt lat="46.70481" lon="-1.85325">
        <ele>25</ele>
        <time>2018-03-21T00:07:21Z</time>
      </trkpt>
      <trkpt lat="46.70458" lon="-1.85209">
        <ele>25</ele>
        <time>2018-03-21T00:08:21Z</time>
      </trkpt>
      <trkpt lat="46.70455" lon="-1.85182">
        <ele>24</ele>
        <time>2018-03-21T00:09:21Z</time>
      </trkpt>
      <trkpt lat="46.70466" lon="-1.84999">
        <ele>25</ele>
        <time>2018-03-21T00:10:21Z</time>
      </trkpt>
      <trkpt lat="46.70465" lon="-1.8497">
        <ele>25</ele>
        <time>2018-03-21T00:11:21Z</time>
      </trkpt>
      <trkpt lat="46.70463" lon="-1.84956">
        <ele>24</ele>
        <time>2018-03-21T00:12:21Z</time>
      </trkpt>
      <trkpt lat="46.7044" lon="-1.84881">
        <ele>23</ele>
        <time>2018-03-21T00:13:21Z</time>
      </trkpt>
      <trkpt lat="46.70427" lon="-1.84833">
        <ele>22</ele>
        <time>2018-03-21T00:14:21Z</time>
      </trkpt>
      <trkpt lat="46.70414" lon="-1.84768">
        <ele>20</ele>
        <time>2018-03-21T00:15:21Z</time>
      </trkpt>
      <trkpt lat="46.70404" lon="-1.84733">
        <ele>20</ele>
        <time>2018-03-21T00:16:21Z</time>
      </trkpt>
      <trkpt lat="46.70366" lon="-1.84637">
        <ele>19</ele>
        <time>2018-03-21T00:17:21Z</time>
      </trkpt>
      <trkpt lat="46.70312" lon="-1.84464">
        <ele>19</ele>
        <time>2018-03-21T00:18:21Z</time>
      </trkpt>
      <trkpt lat="46.70302" lon="-1.84427">
        <ele>19</ele>
        <time>2018-03-21T00:19:21Z</time>
      </trkpt>
      <trkpt lat="46.70298" lon="-1.84403">
        <ele>20</ele>
        <time>2018-03-21T00:20:21Z</time>
      </trkpt>
      <trkpt lat="46.7029" lon="-1.84292">
        <ele>21</ele>
        <time>2018-03-21T00:21:21Z</time>
      </trkpt>
      <trkpt lat="46.70283" lon="-1.84231">
        <ele>21</ele>
        <time>2018-03-21T00:22:21Z</time>
      </trkpt>
      <trkpt lat="46.70259" lon="-1.84058">
        <ele>22</ele>
        <time>2018-03-21T00:23:21Z</time>
      </trkpt>
      <trkpt lat="46.70253" lon="-1.84032">
        <ele>22</ele>
        <time>2018-03-21T00:24:21Z</time>
      </trkpt>
      <trkpt lat="46.70231" lon="-1.83961">
        <ele>22</ele>
        <time>2018-03-21T00:25:21Z</time>
      </trkpt>
      <trkpt lat="46.70219" lon="-1.83928">
        <ele>21</ele>
        <time>2018-03-21T00:26:21Z</time>
      </trkpt>
      <trkpt lat="46.70185" lon="-1.8387">
        <ele>20</ele>
        <time>2018-03-21T00:27:21Z</time>
      </trkpt>
      <trkpt lat="46.70163" lon="-1.83821">
        <ele>20</ele>
        <time>2018-03-21T00:28:21Z</time>
      </trkpt>
      <trkpt lat="46.70102" lon="-1.8366">
        <ele>19</ele>
        <time>2018-03-21T00:29:21Z</time>
      </trkpt>
      <trkpt lat="46.70053" lon="-1.83557">
        <ele>16</ele>
        <time>2018-03-21T00:30:21Z</time>
      </trkpt>
      <trkpt lat="46.70012" lon="-1.83473">
        <ele>14</ele>
        <time>2018-03-21T00:31:21Z</time>
      </trkpt>
      <trkpt lat="46.69998" lon="-1.83433">
        <ele>13</ele>
        <time>2018-03-21T00:32:21Z</time>
      </trkpt>
      <trkpt lat="46.69994" lon="-1.83413">
        <ele>12</ele>
        <time>2018-03-21T00:33:21Z</time>
      </trkpt>
      <trkpt lat="46.69986" lon="-1.83331">
        <ele>9</ele>
        <time>2018-03-21T00:34:21Z</time>
      </trkpt>
      <trkpt lat="46.6996" lon="-1.83279">
        <ele>10</ele>
        <time>2018-03-21T00:35:21Z</time>
      </trkpt>
      <trkpt lat="46.69957" lon="-1.83267">
        <ele>11</ele>
        <time>2018-03-21T00:36:21Z</time>
      </trkpt>
      <trkpt lat="46.69955" lon="-1.83256">
        <ele>11</ele>
        <time>2018-03-21T00:37:21Z</time>
      </trkpt>
      <trkpt lat="46.69957" lon="-1.83232">
        <ele>11</ele>
        <time>2018-03-21T00:38:21Z</time>
      </trkpt>
      <trkpt lat="46.69963" lon="-1.83213">
        <ele>11</ele>
        <time>2018-03-21T00:39:21Z</time>
      </trkpt>
      <trkpt lat="46.69972" lon="-1.83194">
        <ele>11</ele>
        <time>2018-03-21T00:40:21Z</time>
      </trkpt>
      <trkpt lat="46.69996" lon="-1.83168">
        <ele>11</ele>
        <time>2018-03-21T00:41:21Z</time>
      </trkpt>
      <trkpt lat="46.69999" lon="-1.83161">
        <ele>11</ele>
        <time>2018-03-21T00:42:21Z</time>
      </trkpt>
      <trkpt lat="46.70017" lon="-1.83169">
        <ele>11</ele>
        <time>2018-03-21T00:43:21Z</time>
      </trkpt>
      <trkpt lat="46.70025" lon="-1.83168">
        <ele>11</ele>
        <time>2018-03-21T00:44:21Z</time>
      </trkpt>
      <trkpt lat="46.70072" lon="-1.83122">
        <ele>11</ele>
        <time>2018-03-21T00:45:21Z</time>
      </trkpt>
      <trkpt lat="46.70081" lon="-1.83088">
        <ele>11</ele>
        <time>2018-03-21T00:46:21Z</time>
      </trkpt>
      <trkpt lat="46.70045" lon="-1.83012">
        <ele>14</ele>
        <time>2018-03-21T00:47:21Z</time>
      </trkpt>
      <trkpt lat="46.70045" lon="-1.83012">
        <ele>14</ele>
        <time>2018-03-21T00:48:21Z</time>
      </trkpt>
      <trkpt lat="46.70017" lon="-1.82951">
        <ele>17</ele>
        <time>2018-03-21T00:49:21Z</time>
      </trkpt>
      <trkpt lat="46.69963" lon="-1.82986">
        <ele>15</ele>
        <time>2018-03-21T00:50:21Z</time>
      </trkpt>
      <trkpt lat="46.69937" lon="-1.83006">
        <ele>15</ele>
        <time>2018-03-21T00:51:21Z</time>
      </trkpt>
      <trkpt lat="46.69929" lon="-1.8301">
        <ele>15</ele>
        <time>2018-03-21T00:52:21Z</time>
      </trkpt>
      <trkpt lat="46.69922" lon="-1.8301">
        <ele>15</ele>
        <time>2018-03-21T00:53:21Z</time>
      </trkpt>
      <trkpt lat="46.69909" lon="-1.83006">
        <ele>15</ele>
        <time>2018-03-21T00:54:21Z</time>
      </trkpt>
      <trkpt lat="46.69895" lon="-1.82994">
        <ele>15</ele>
        <time>2018-03-21T00:55:21Z</time>
      </trkpt>
      <trkpt lat="46.69845" lon="-1.82936">
        <ele>18</ele>
        <time>2018-03-21T00:56:21Z</time>
      </trkpt>
      <trkpt lat="46.6983" lon="-1.82922">
        <ele>19</ele>
        <time>2018-03-21T00:57:21Z</time>
      </trkpt>
      <trkpt lat="46.69821" lon="-1.82916">
        <ele>19</ele>
        <time>2018-03-21T00:58:21Z</time>
      </trkpt>
      <trkpt lat="46.69808" lon="-1.82912">
        <ele>19</ele>
        <time>2018-03-21T00:59:21Z</time>
      </trkpt>
      <trkpt lat="46.69797" lon="-1.82911">
        <ele>18</ele>
        <time>2018-03-21T01:00:21Z</time>
      </trkpt>
      <trkpt lat="46.69784" lon="-1.82913">
        <ele>18</ele>
        <time>2018-03-21T01:01:21Z</time>
      </trkpt>
      <trkpt lat="46.69775" lon="-1.82918">
        <ele>18</ele>
        <time>2018-03-21T01:02:21Z</time>
      </trkpt>
      <trkpt lat="46.69758" lon="-1.82933">
        <ele>17</ele>
        <time>2018-03-21T01:03:21Z</time>
      </trkpt>
      <trkpt lat="46.69684" lon="-1.83042">
        <ele>15</ele>
        <time>2018-03-21T01:04:21Z</time>
      </trkpt>
      <trkpt lat="46.69523" lon="-1.83241">
        <ele>11</ele>
        <time>2018-03-21T01:05:21Z</time>
      </trkpt>
      <trkpt lat="46.69483" lon="-1.83259">
        <ele>13</ele>
        <time>2018-03-21T01:06:21Z</time>
      </trkpt>
      <trkpt lat="46.69463" lon="-1.83261">
        <ele>14</ele>
        <time>2018-03-21T01:07:21Z</time>
      </trkpt>
      <trkpt lat="46.69453" lon="-1.8326">
        <ele>14</ele>
        <time>2018-03-21T01:08:21Z</time>
      </trkpt>
      <trkpt lat="46.69423" lon="-1.83251">
        <ele>16</ele>
        <time>2018-03-21T01:09:21Z</time>
      </trkpt>
      <trkpt lat="46.69388" lon="-1.83236">
        <ele>17</ele>
        <time>2018-03-21T01:10:21Z</time>
      </trkpt>
      <trkpt lat="46.69346" lon="-1.83226">
        <ele>18</ele>
        <time>2018-03-21T01:11:21Z</time>
      </trkpt>
      <trkpt lat="46.69334" lon="-1.83226">
        <ele>19</ele>
        <time>2018-03-21T01:12:21Z</time>
      </trkpt>
      <trkpt lat="46.69328" lon="-1.83231">
        <ele>19</ele>
        <time>2018-03-21T01:13:21Z</time>
      </trkpt>
      <trkpt lat="46.69323" lon="-1.83232">
        <ele>19</ele>
        <time>2018-03-21T01:14:21Z</time>
      </trkpt>
      <trkpt lat="46.69315" lon="-1.83228">
        <ele>19</ele>
        <time>2018-03-21T01:15:21Z</time>
      </trkpt>
      <trkpt lat="46.69312" lon="-1.83222">
        <ele>20</ele>
        <time>2018-03-21T01:16:21Z</time>
      </trkpt>
      <trkpt lat="46.69301" lon="-1.83215">
        <ele>20</ele>
        <time>2018-03-21T01:17:21Z</time>
      </trkpt>
      <trkpt lat="46.6929" lon="-1.83212">
        <ele>20</ele>
        <time>2018-03-21T01:18:21Z</time>
      </trkpt>
      <trkpt lat="46.69245" lon="-1.83234">
        <ele>22</ele>
        <time>2018-03-21T01:19:21Z</time>
      </trkpt>
      <trkpt lat="46.69153" lon="-1.83271">
        <ele>21</ele>
        <time>2018-03-21T01:20:21Z</time>
      </trkpt>
      <trkpt lat="46.69088" lon="-1.83294">
        <ele>22</ele>
        <time>2018-03-21T01:21:21Z</time>
      </trkpt>
      <trkpt lat="46.69056" lon="-1.83313">
        <ele>22</ele>
        <time>2018-03-21T01:22:21Z</time>
      </trkpt>
      <trkpt lat="46.68955" lon="-1.83461">
        <ele>20</ele>
        <time>2018-03-21T01:23:21Z</time>
      </trkpt>
      <trkpt lat="46.68938" lon="-1.83476">
        <ele>20</ele>
        <time>2018-03-21T01:24:21Z</time>
      </trkpt>
      <trkpt lat="46.68917" lon="-1.83487">
        <ele>19</ele>
        <time>2018-03-21T01:25:21Z</time>
      </trkpt>
      <trkpt lat="46.68879" lon="-1.83493">
        <ele>19</ele>
        <time>2018-03-21T01:26:21Z</time>
      </trkpt>
      <trkpt lat="46.68741" lon="-1.83432">
        <ele>22</ele>
        <time>2018-03-21T01:27:21Z</time>
      </trkpt>
      <trkpt lat="46.68593" lon="-1.83363">
        <ele>22</ele>
        <time>2018-03-21T01:28:21Z</time>
      </trkpt>
      <trkpt lat="46.68322" lon="-1.83178">
        <ele>18</ele>
        <time>2018-03-21T01:29:21Z</time>
      </trkpt>
      <trkpt lat="46.68254" lon="-1.83153">
        <ele>19</ele>
        <time>2018-03-21T01:30:21Z</time>
      </trkpt>
      <trkpt lat="46.6807" lon="-1.8313">
        <ele>24</ele>
        <time>2018-03-21T01:31:21Z</time>
      </trkpt>
      <trkpt lat="46.67862" lon="-1.83034">
        <ele>24</ele>
        <time>2018-03-21T01:32:21Z</time>
      </trkpt>
      <trkpt lat="46.67807" lon="-1.83015">
        <ele>24</ele>
        <time>2018-03-21T01:33:21Z</time>
      </trkpt>
      <trkpt lat="46.67724" lon="-1.83012">
        <ele>24</ele>
        <time>2018-03-21T01:34:21Z</time>
      </trkpt>
      <trkpt lat="46.67585" lon="-1.83016">
        <ele>26</ele>
        <time>2018-03-21T01:35:21Z</time>
      </trkpt>
      <trkpt lat="46.67549" lon="-1.83025">
        <ele>27</ele>
        <time>2018-03-21T01:36:21Z</time>
      </trkpt>
      <trkpt lat="46.67386" lon="-1.83107">
        <ele>27</ele>
        <time>2018-03-21T01:37:21Z</time>
      </trkpt>
      <trkpt lat="46.67334" lon="-1.83035">
        <ele>27</ele>
        <time>2018-03-21T01:38:21Z</time>
      </trkpt>
      <trkpt lat="46.67334" lon="-1.83035">
        <ele>27</ele>
        <time>2018-03-21T01:39:21Z</time>
      </trkpt>
      <trkpt lat="46.67132" lon="-1.82752">
        <ele>20</ele>
        <time>2018-03-21T01:40:21Z</time>
      </trkpt>
      <trkpt lat="46.67132" lon="-1.82752">
        <ele>20</ele>
        <time>2018-03-21T01:41:21Z</time>
      </trkpt>
      <trkpt lat="46.67084" lon="-1.82684">
        <ele>22</ele>
        <time>2018-03-21T01:42:21Z</time>
      </trkpt>
      <trkpt lat="46.6708" lon="-1.82681">
        <ele>22</ele>
        <time>2018-03-21T01:43:21Z</time>
      </trkpt>
      <trkpt lat="46.67077" lon="-1.82687">
        <ele>22</ele>
        <time>2018-03-21T01:44:21Z</time>
      </trkpt>
      <trkpt lat="46.67073" lon="-1.82691">
        <ele>22</ele>
        <time>2018-03-21T01:45:21Z</time>
      </trkpt>
      <trkpt lat="46.67068" lon="-1.82691">
        <ele>22</ele>
        <time>2018-03-21T01:46:21Z</time>
      </trkpt>
      <trkpt lat="46.67063" lon="-1.82688">
        <ele>22</ele>
        <time>2018-03-21T01:47:21Z</time>
      </trkpt>
      <trkpt lat="46.6706" lon="-1.82682">
        <ele>22</ele>
        <time>2018-03-21T01:48:21Z</time>
      </trkpt>
      <trkpt lat="46.67059" lon="-1.82674">
        <ele>22</ele>
        <time>2018-03-21T01:49:21Z</time>
      </trkpt>
      <trkpt lat="46.67061" lon="-1.82667">
        <ele>23</ele>
        <time>2018-03-21T01:50:21Z</time>
      </trkpt>
      <trkpt lat="46.67065" lon="-1.82662">
        <ele>23</ele>
        <time>2018-03-21T01:51:21Z</time>
      </trkpt>
      <trkpt lat="46.6707" lon="-1.8266">
        <ele>23</ele>
        <time>2018-03-21T01:52:21Z</time>
      </trkpt>
      <trkpt lat="46.67075" lon="-1.82661">
        <ele>23</ele>
        <time>2018-03-21T01:53:21Z</time>
      </trkpt>
      <trkpt lat="46.67079" lon="-1.82604">
        <ele>26</ele>
        <time>2018-03-21T01:54:21Z</time>
      </trkpt>
      <trkpt lat="46.67092" lon="-1.82573">
        <ele>28</ele>
        <time>2018-03-21T01:55:21Z</time>
      </trkpt>
      <trkpt lat="46.6714" lon="-1.82497">
        <ele>31</ele>
        <time>2018-03-21T01:56:21Z</time>
      </trkpt>
      <trkpt lat="46.67248" lon="-1.82256">
        <ele>32</ele>
        <time>2018-03-21T01:57:21Z</time>
      </trkpt>
      <trkpt lat="46.67276" lon="-1.82183">
        <ele>32</ele>
        <time>2018-03-21T01:58:21Z</time>
      </trkpt>
      <trkpt lat="46.673" lon="-1.82112">
        <ele>32</ele>
        <time>2018-03-21T01:59:21Z</time>
      </trkpt>
      <trkpt lat="46.67325" lon="-1.82027">
        <ele>33</ele>
        <time>2018-03-21T02:00:21Z</time>
      </trkpt>
      <trkpt lat="46.67399" lon="-1.81821">
        <ele>32</ele>
        <time>2018-03-21T02:01:21Z</time>
      </trkpt>
      <trkpt lat="46.67428" lon="-1.81584">
        <ele>32</ele>
        <time>2018-03-21T02:02:21Z</time>
      </trkpt>
      <trkpt lat="46.67469" lon="-1.81421">
        <ele>35</ele>
        <time>2018-03-21T02:03:21Z</time>
      </trkpt>
      <trkpt lat="46.67497" lon="-1.81325">
        <ele>35</ele>
        <time>2018-03-21T02:04:21Z</time>
      </trkpt>
      <trkpt lat="46.67497" lon="-1.81325">
        <ele>35</ele>
        <time>2018-03-21T02:05:21Z</time>
      </trkpt>
      <trkpt lat="46.67504" lon="-1.81301">
        <ele>35</ele>
        <time>2018-03-21T02:06:21Z</time>
      </trkpt>
      <trkpt lat="46.6751" lon="-1.8106">
        <ele>31</ele>
        <time>2018-03-21T02:07:21Z</time>
      </trkpt>
      <trkpt lat="46.67534" lon="-1.80951">
        <ele>34</ele>
        <time>2018-03-21T02:08:21Z</time>
      </trkpt>
      <trkpt lat="46.67568" lon="-1.80782">
        <ele>36</ele>
        <time>2018-03-21T02:09:21Z</time>
      </trkpt>
      <trkpt lat="46.67571" lon="-1.80487">
        <ele>37</ele>
        <time>2018-03-21T02:10:21Z</time>
      </trkpt>
      <trkpt lat="46.67567" lon="-1.80309">
        <ele>37</ele>
        <time>2018-03-21T02:11:21Z</time>
      </trkpt>
      <trkpt lat="46.67549" lon="-1.80167">
        <ele>37</ele>
        <time>2018-03-21T02:12:21Z</time>
      </trkpt>
      <trkpt lat="46.67548" lon="-1.80079">
        <ele>38</ele>
        <time>2018-03-21T02:13:21Z</time>
      </trkpt>
      <trkpt lat="46.6756" lon="-1.7996">
        <ele>40</ele>
        <time>2018-03-21T02:14:21Z</time>
      </trkpt>
      <trkpt lat="46.67595" lon="-1.79847">
        <ele>42</ele>
        <time>2018-03-21T02:15:21Z</time>
      </trkpt>
      <trkpt lat="46.67606" lon="-1.79702">
        <ele>41</ele>
        <time>2018-03-21T02:16:21Z</time>
      </trkpt>
      <trkpt lat="46.67629" lon="-1.79606">
        <ele>40</ele>
        <time>2018-03-21T02:17:21Z</time>
      </trkpt>
      <trkpt lat="46.67631" lon="-1.79558">
        <ele>40</ele>
        <time>2018-03-21T02:18:21Z</time>
      </trkpt>
      <trkpt lat="46.67623" lon="-1.79493">
        <ele>40</ele>
        <time>2018-03-21T02:19:21Z</time>
      </trkpt>
      <trkpt lat="46.67585" lon="-1.79399">
        <ele>41</ele>
        <time>2018-03-21T02:20:21Z</time>
      </trkpt>
      <trkpt lat="46.67578" lon="-1.79326">
        <ele>42</ele>
        <time>2018-03-21T02:21:21Z</time>
      </trkpt>
      <trkpt lat="46.67573" lon="-1.79109">
        <ele>42</ele>
        <time>2018-03-21T02:22:21Z</time>
      </trkpt>
      <trkpt lat="46.67551" lon="-1.78947">
        <ele>38</ele>
        <time>2018-03-21T02:23:21Z</time>
      </trkpt>
      <trkpt lat="46.67544" lon="-1.78914">
        <ele>37</ele>
        <time>2018-03-21T02:24:21Z</time>
      </trkpt>
      <trkpt lat="46.67472" lon="-1.78624">
        <ele>35</ele>
        <time>2018-03-21T02:25:21Z</time>
      </trkpt>
      <trkpt lat="46.67456" lon="-1.78575">
        <ele>36</ele>
        <time>2018-03-21T02:26:21Z</time>
      </trkpt>
      <trkpt lat="46.67432" lon="-1.78527">
        <ele>36</ele>
        <time>2018-03-21T02:27:21Z</time>
      </trkpt>
      <trkpt lat="46.67392" lon="-1.78436">
        <ele>37</ele>
        <time>2018-03-21T02:28:21Z</time>
      </trkpt>
      <trkpt lat="46.6737" lon="-1.78381">
        <ele>37</ele>
        <time>2018-03-21T02:29:21Z</time>
      </trkpt>
      <trkpt lat="46.67355" lon="-1.78332">
        <ele>37</ele>
        <time>2018-03-21T02:30:21Z</time>
      </trkpt>
      <trkpt lat="46.67343" lon="-1.78307">
        <ele>37</ele>
        <time>2018-03-21T02:31:21Z</time>
      </trkpt>
      <trkpt lat="46.67334" lon="-1.78296">
        <ele>36</ele>
        <time>2018-03-21T02:32:21Z</time>
      </trkpt>
      <trkpt lat="46.67321" lon="-1.78286">
        <ele>37</ele>
        <time>2018-03-21T02:33:21Z</time>
      </trkpt>
      <trkpt lat="46.67298" lon="-1.78274">
        <ele>37</ele>
        <time>2018-03-21T02:34:21Z</time>
      </trkpt>
      <trkpt lat="46.67298" lon="-1.78274">
        <ele>37</ele>
        <time>2018-03-21T02:35:21Z</time>
      </trkpt>
      <trkpt lat="46.67198" lon="-1.78225">
        <ele>38</ele>
        <time>2018-03-21T02:36:21Z</time>
      </trkpt>
      <trkpt lat="46.67186" lon="-1.78214">
        <ele>39</ele>
        <time>2018-03-21T02:37:21Z</time>
      </trkpt>
      <trkpt lat="46.67171" lon="-1.78155">
        <ele>40</ele>
        <time>2018-03-21T02:38:21Z</time>
      </trkpt>
      <trkpt lat="46.67163" lon="-1.78119">
        <ele>41</ele>
        <time>2018-03-21T02:39:21Z</time>
      </trkpt>
      <trkpt lat="46.67151" lon="-1.77963">
        <ele>42</ele>
        <time>2018-03-21T02:40:21Z</time>
      </trkpt>
      <trkpt lat="46.67143" lon="-1.77934">
        <ele>42</ele>
        <time>2018-03-21T02:41:21Z</time>
      </trkpt>
      <trkpt lat="46.66957" lon="-1.77549">
        <ele>46</ele>
        <time>2018-03-21T02:42:21Z</time>
      </trkpt>
      <trkpt lat="46.66956" lon="-1.77512">
        <ele>47</ele>
        <time>2018-03-21T02:43:21Z</time>
      </trkpt>
      <trkpt lat="46.67007" lon="-1.77313">
        <ele>48</ele>
        <time>2018-03-21T02:44:21Z</time>
      </trkpt>
      <trkpt lat="46.6704" lon="-1.77136">
        <ele>50</ele>
        <time>2018-03-21T02:45:21Z</time>
      </trkpt>
      <trkpt lat="46.67066" lon="-1.76949">
        <ele>52</ele>
        <time>2018-03-21T02:46:21Z</time>
      </trkpt>
      <trkpt lat="46.67111" lon="-1.76733">
        <ele>52</ele>
        <time>2018-03-21T02:47:21Z</time>
      </trkpt>
      <trkpt lat="46.67124" lon="-1.76584">
        <ele>50</ele>
        <time>2018-03-21T02:48:21Z</time>
      </trkpt>
      <trkpt lat="46.67183" lon="-1.76373">
        <ele>51</ele>
        <time>2018-03-21T02:49:21Z</time>
      </trkpt>
      <trkpt lat="46.67227" lon="-1.76279">
        <ele>51</ele>
        <time>2018-03-21T02:50:21Z</time>
      </trkpt>
      <trkpt lat="46.67254" lon="-1.76216">
        <ele>51</ele>
        <time>2018-03-21T02:51:21Z</time>
      </trkpt>
      <trkpt lat="46.67266" lon="-1.76182">
        <ele>52</ele>
        <time>2018-03-21T02:52:21Z</time>
      </trkpt>
      <trkpt lat="46.67273" lon="-1.76149">
        <ele>52</ele>
        <time>2018-03-21T02:53:21Z</time>
      </trkpt>
      <trkpt lat="46.67288" lon="-1.76021">
        <ele>52</ele>
        <time>2018-03-21T02:54:21Z</time>
      </trkpt>
      <trkpt lat="46.67302" lon="-1.75864">
        <ele>52</ele>
        <time>2018-03-21T02:55:21Z</time>
      </trkpt>
      <trkpt lat="46.67149" lon="-1.75958">
        <ele>52</ele>
        <time>2018-03-21T02:56:21Z</time>
      </trkpt>
      <trkpt lat="46.67142" lon="-1.7596">
        <ele>52</ele>
        <time>2018-03-21T02:57:21Z</time>
      </trkpt>
      <trkpt lat="46.67142" lon="-1.7596">
        <ele>52</ele>
        <time>2018-03-21T02:58:21Z</time>
      </trkpt>
      <trkpt lat="46.67129" lon="-1.75959">
        <ele>52</ele>
        <time>2018-03-21T02:59:21Z</time>
      </trkpt>
      <trkpt lat="46.67117" lon="-1.75948">
        <ele>52</ele>
        <time>2018-03-21T03:00:21Z</time>
      </trkpt>
      <trkpt lat="46.67107" lon="-1.75929">
        <ele>51</ele>
        <time>2018-03-21T03:01:21Z</time>
      </trkpt>
      <trkpt lat="46.67067" lon="-1.75841">
        <ele>51</ele>
        <time>2018-03-21T03:02:21Z</time>
      </trkpt>
      <trkpt lat="46.67058" lon="-1.75796">
        <ele>51</ele>
        <time>2018-03-21T03:03:21Z</time>
      </trkpt>
      <trkpt lat="46.67053" lon="-1.75778">
        <ele>51</ele>
        <time>2018-03-21T03:04:21Z</time>
      </trkpt>
      <trkpt lat="46.67037" lon="-1.75739">
        <ele>51</ele>
        <time>2018-03-21T03:05:21Z</time>
      </trkpt>
      <trkpt lat="46.67017" lon="-1.7567">
        <ele>51</ele>
        <time>2018-03-21T03:06:21Z</time>
      </trkpt>
      <trkpt lat="46.67011" lon="-1.75655">
        <ele>50</ele>
        <time>2018-03-21T03:07:21Z</time>
      </trkpt>
      <trkpt lat="46.66998" lon="-1.75633">
        <ele>49</ele>
        <time>2018-03-21T03:08:21Z</time>
      </trkpt>
      <trkpt lat="46.66989" lon="-1.75623">
        <ele>49</ele>
        <time>2018-03-21T03:09:21Z</time>
      </trkpt>
      <trkpt lat="46.66972" lon="-1.75615">
        <ele>48</ele>
        <time>2018-03-21T03:10:21Z</time>
      </trkpt>
      <trkpt lat="46.6692" lon="-1.75606">
        <ele>48</ele>
        <time>2018-03-21T03:11:21Z</time>
      </trkpt>
      <trkpt lat="46.66892" lon="-1.75599">
        <ele>47</ele>
        <time>2018-03-21T03:12:21Z</time>
      </trkpt>
      <trkpt lat="46.66877" lon="-1.75591">
        <ele>47</ele>
        <time>2018-03-21T03:13:21Z</time>
      </trkpt>
      <trkpt lat="46.66859" lon="-1.75577">
        <ele>47</ele>
        <time>2018-03-21T03:14:21Z</time>
      </trkpt>
      <trkpt lat="46.66812" lon="-1.7553">
        <ele>45</ele>
        <time>2018-03-21T03:15:21Z</time>
      </trkpt>
      <trkpt lat="46.66796" lon="-1.75517">
        <ele>46</ele>
        <time>2018-03-21T03:16:21Z</time>
      </trkpt>
      <trkpt lat="46.66743" lon="-1.75499">
        <ele>47</ele>
        <time>2018-03-21T03:17:21Z</time>
      </trkpt>
      <trkpt lat="46.66701" lon="-1.75488">
        <ele>48</ele>
        <time>2018-03-21T03:18:21Z</time>
      </trkpt>
      <trkpt lat="46.66676" lon="-1.7549">
        <ele>49</ele>
        <time>2018-03-21T03:19:21Z</time>
      </trkpt>
      <trkpt lat="46.66623" lon="-1.75499">
        <ele>50</ele>
        <time>2018-03-21T03:20:21Z</time>
      </trkpt>
      <trkpt lat="46.66553" lon="-1.7547">
        <ele>48</ele>
        <time>2018-03-21T03:21:21Z</time>
      </trkpt>
      <trkpt lat="46.66525" lon="-1.75466">
        <ele>47</ele>
        <time>2018-03-21T03:22:21Z</time>
      </trkpt>
      <trkpt lat="46.66459" lon="-1.75479">
        <ele>39</ele>
        <time>2018-03-21T03:23:21Z</time>
      </trkpt>
      <trkpt lat="46.66418" lon="-1.75477">
        <ele>34</ele>
        <time>2018-03-21T03:24:21Z</time>
      </trkpt>
      <trkpt lat="46.66401" lon="-1.75473">
        <ele>33</ele>
        <time>2018-03-21T03:25:21Z</time>
      </trkpt>
      <trkpt lat="46.66382" lon="-1.75465">
        <ele>32</ele>
        <time>2018-03-21T03:26:21Z</time>
      </trkpt>
      <trkpt lat="46.66355" lon="-1.7545">
        <ele>31</ele>
        <time>2018-03-21T03:27:21Z</time>
      </trkpt>
      <trkpt lat="46.66344" lon="-1.75435">
        <ele>31</ele>
        <time>2018-03-21T03:28:21Z</time>
      </trkpt>
      <trkpt lat="46.66328" lon="-1.75408">
        <ele>31</ele>
        <time>2018-03-21T03:29:21Z</time>
      </trkpt>
      <trkpt lat="46.66316" lon="-1.754">
        <ele>30</ele>
        <time>2018-03-21T03:30:21Z</time>
      </trkpt>
      <trkpt lat="46.6621" lon="-1.75396">
        <ele>28</ele>
        <time>2018-03-21T03:31:21Z</time>
      </trkpt>
      <trkpt lat="46.6615" lon="-1.7539">
        <ele>26</ele>
        <time>2018-03-21T03:32:21Z</time>
      </trkpt>
      <trkpt lat="46.66043" lon="-1.75365">
        <ele>18</ele>
        <time>2018-03-21T03:33:21Z</time>
      </trkpt>
      <trkpt lat="46.66023" lon="-1.75358">
        <ele>16</ele>
        <time>2018-03-21T03:34:21Z</time>
      </trkpt>
      <trkpt lat="46.66019" lon="-1.75354">
        <ele>16</ele>
        <time>2018-03-21T03:35:21Z</time>
      </trkpt>
      <trkpt lat="46.66011" lon="-1.75343">
        <ele>16</ele>
        <time>2018-03-21T03:36:21Z</time>
      </trkpt>
      <trkpt lat="46.66007" lon="-1.7533">
        <ele>16</ele>
        <time>2018-03-21T03:37:21Z</time>
      </trkpt>
      <trkpt lat="46.66008" lon="-1.75308">
        <ele>16</ele>
        <time>2018-03-21T03:38:21Z</time>
      </trkpt>
      <trkpt lat="46.66011" lon="-1.75298">
        <ele>16</ele>
        <time>2018-03-21T03:39:21Z</time>
      </trkpt>
      <trkpt lat="46.66146" lon="-1.7506">
        <ele>14</ele>
        <time>2018-03-21T03:40:21Z</time>
      </trkpt>
      <trkpt lat="46.662" lon="-1.7497">
        <ele>16</ele>
        <time>2018-03-21T03:41:21Z</time>
      </trkpt>
      <trkpt lat="46.66208" lon="-1.74947">
        <ele>16</ele>
        <time>2018-03-21T03:42:21Z</time>
      </trkpt>
      <trkpt lat="46.6621" lon="-1.74927">
        <ele>17</ele>
        <time>2018-03-21T03:43:21Z</time>
      </trkpt>
      <trkpt lat="46.66194" lon="-1.74869">
        <ele>18</ele>
        <time>2018-03-21T03:44:21Z</time>
      </trkpt>
      <trkpt lat="46.66186" lon="-1.74827">
        <ele>18</ele>
        <time>2018-03-21T03:45:21Z</time>
      </trkpt>
      <trkpt lat="46.66162" lon="-1.74829">
        <ele>20</ele>
        <time>2018-03-21T03:46:21Z</time>
      </trkpt>
      <trkpt lat="46.66114" lon="-1.74825">
        <ele>23</ele>
        <time>2018-03-21T03:47:21Z</time>
      </trkpt>
      <trkpt lat="46.66042" lon="-1.74795">
        <ele>27</ele>
        <time>2018-03-21T03:48:21Z</time>
      </trkpt>
      <trkpt lat="46.65964" lon="-1.74754">
        <ele>34</ele>
        <time>2018-03-21T03:49:21Z</time>
      </trkpt>
      <trkpt lat="46.65922" lon="-1.74722">
        <ele>38</ele>
        <time>2018-03-21T03:50:21Z</time>
      </trkpt>
      <trkpt lat="46.65897" lon="-1.74699">
        <ele>39</ele>
        <time>2018-03-21T03:51:21Z</time>
      </trkpt>
      <trkpt lat="46.65876" lon="-1.74671">
        <ele>41</ele>
        <time>2018-03-21T03:52:21Z</time>
      </trkpt>
      <trkpt lat="46.65806" lon="-1.74554">
        <ele>45</ele>
        <time>2018-03-21T03:53:21Z</time>
      </trkpt>
      <trkpt lat="46.65778" lon="-1.74518">
        <ele>45</ele>
        <time>2018-03-21T03:54:21Z</time>
      </trkpt>
      <trkpt lat="46.65757" lon="-1.74496">
        <ele>47</ele>
        <time>2018-03-21T03:55:21Z</time>
      </trkpt>
      <trkpt lat="46.6566" lon="-1.74424">
        <ele>49</ele>
        <time>2018-03-21T03:56:21Z</time>
      </trkpt>
      <trkpt lat="46.6566" lon="-1.74424">
        <ele>49</ele>
        <time>2018-03-21T03:57:21Z</time>
      </trkpt>
      <trkpt lat="46.65607" lon="-1.74385">
        <ele>51</ele>
        <time>2018-03-21T03:58:21Z</time>
      </trkpt>
      <trkpt lat="46.65537" lon="-1.74338">
        <ele>53</ele>
        <time>2018-03-21T03:59:21Z</time>
      </trkpt>
      <trkpt lat="46.65521" lon="-1.74318">
        <ele>53</ele>
        <time>2018-03-21T04:00:21Z</time>
      </trkpt>
      <trkpt lat="46.65436" lon="-1.74168">
        <ele>55</ele>
        <time>2018-03-21T04:01:21Z</time>
      </trkpt>
      <trkpt lat="46.65395" lon="-1.74097">
        <ele>54</ele>
        <time>2018-03-21T04:02:21Z</time>
      </trkpt>
      <trkpt lat="46.65303" lon="-1.73955">
        <ele>53</ele>
        <time>2018-03-21T04:03:21Z</time>
      </trkpt>
      <trkpt lat="46.6509" lon="-1.73712">
        <ele>55</ele>
        <time>2018-03-21T04:04:21Z</time>
      </trkpt>
      <trkpt lat="46.6503" lon="-1.73634">
        <ele>55</ele>
        <time>2018-03-21T04:05:21Z</time>
      </trkpt>
      <trkpt lat="46.64969" lon="-1.73567">
        <ele>55</ele>
        <time>2018-03-21T04:06:21Z</time>
      </trkpt>
      <trkpt lat="46.64855" lon="-1.73383">
        <ele>56</ele>
        <time>2018-03-21T04:07:21Z</time>
      </trkpt>
      <trkpt lat="46.64791" lon="-1.73256">
        <ele>56</ele>
        <time>2018-03-21T04:08:21Z</time>
      </trkpt>
      <trkpt lat="46.64733" lon="-1.73131">
        <ele>58</ele>
        <time>2018-03-21T04:09:21Z</time>
      </trkpt>
      <trkpt lat="46.64649" lon="-1.72958">
        <ele>58</ele>
        <time>2018-03-21T04:10:21Z</time>
      </trkpt>
      <trkpt lat="46.64633" lon="-1.72907">
        <ele>58</ele>
        <time>2018-03-21T04:11:21Z</time>
      </trkpt>
      <trkpt lat="46.64628" lon="-1.72856">
        <ele>58</ele>
        <time>2018-03-21T04:12:21Z</time>
      </trkpt>
      <trkpt lat="46.64624" lon="-1.72708">
        <ele>58</ele>
        <time>2018-03-21T04:13:21Z</time>
      </trkpt>
      <trkpt lat="46.64606" lon="-1.72634">
        <ele>59</ele>
        <time>2018-03-21T04:14:21Z</time>
      </trkpt>
      <trkpt lat="46.64575" lon="-1.72551">
        <ele>59</ele>
        <time>2018-03-21T04:15:21Z</time>
      </trkpt>
      <trkpt lat="46.6453" lon="-1.72313">
        <ele>59</ele>
        <time>2018-03-21T04:16:21Z</time>
      </trkpt>
      <trkpt lat="46.64514" lon="-1.72169">
        <ele>58</ele>
        <time>2018-03-21T04:17:21Z</time>
      </trkpt>
      <trkpt lat="46.64506" lon="-1.72061">
        <ele>57</ele>
        <time>2018-03-21T04:18:21Z</time>
      </trkpt>
      <trkpt lat="46.64494" lon="-1.71959">
        <ele>57</ele>
        <time>2018-03-21T04:19:21Z</time>
      </trkpt>
      <trkpt lat="46.64465" lon="-1.71834">
        <ele>56</ele>
        <time>2018-03-21T04:20:21Z</time>
      </trkpt>
      <trkpt lat="46.64456" lon="-1.71817">
        <ele>56</ele>
        <time>2018-03-21T04:21:21Z</time>
      </trkpt>
      <trkpt lat="46.64433" lon="-1.71762">
        <ele>56</ele>
        <time>2018-03-21T04:22:21Z</time>
      </trkpt>
      <trkpt lat="46.64421" lon="-1.71731">
        <ele>56</ele>
        <time>2018-03-21T04:23:21Z</time>
      </trkpt>
      <trkpt lat="46.64407" lon="-1.71615">
        <ele>54</ele>
        <time>2018-03-21T04:24:21Z</time>
      </trkpt>
      <trkpt lat="46.64398" lon="-1.71517">
        <ele>52</ele>
        <time>2018-03-21T04:25:21Z</time>
      </trkpt>
      <trkpt lat="46.64261" lon="-1.71517">
        <ele>54</ele>
        <time>2018-03-21T04:26:21Z</time>
      </trkpt>
      <trkpt lat="46.64129" lon="-1.71511">
        <ele>57</ele>
        <time>2018-03-21T04:27:21Z</time>
      </trkpt>
      <trkpt lat="46.64091" lon="-1.71521">
        <ele>57</ele>
        <time>2018-03-21T04:28:21Z</time>
      </trkpt>
      <trkpt lat="46.64085" lon="-1.71501">
        <ele>57</ele>
        <time>2018-03-21T04:29:21Z</time>
      </trkpt>
      <trkpt lat="46.64068" lon="-1.71468">
        <ele>58</ele>
        <time>2018-03-21T04:30:21Z</time>
      </trkpt>
      <trkpt lat="46.6405" lon="-1.71423">
        <ele>59</ele>
        <time>2018-03-21T04:31:21Z</time>
      </trkpt>
      <trkpt lat="46.64047" lon="-1.71401">
        <ele>59</ele>
        <time>2018-03-21T04:32:21Z</time>
      </trkpt>
      <trkpt lat="46.64064" lon="-1.71241">
        <ele>57</ele>
        <time>2018-03-21T04:33:21Z</time>
      </trkpt>
      <trkpt lat="46.64064" lon="-1.71233">
        <ele>57</ele>
        <time>2018-03-21T04:34:21Z</time>
      </trkpt>
      <trkpt lat="46.64054" lon="-1.71213">
        <ele>57</ele>
        <time>2018-03-21T04:35:21Z</time>
      </trkpt>
      <trkpt lat="46.64054" lon="-1.71213">
        <ele>57</ele>
        <time>2018-03-21T04:36:21Z</time>
      </trkpt>
      <trkpt lat="46.64022" lon="-1.71156">
        <ele>57</ele>
        <time>2018-03-21T04:37:21Z</time>
      </trkpt>
      <trkpt lat="46.64042" lon="-1.71133">
        <ele>57</ele>
        <time>2018-03-21T04:38:21Z</time>
      </trkpt>
      <trkpt lat="46.64116" lon="-1.71049">
        <ele>59</ele>
        <time>2018-03-21T04:39:21Z</time>
      </trkpt>
      <trkpt lat="46.64159" lon="-1.70988">
        <ele>60</ele>
        <time>2018-03-21T04:40:21Z</time>
      </trkpt>
      <trkpt lat="46.64212" lon="-1.70933">
        <ele>59</ele>
        <time>2018-03-21T04:41:21Z</time>
      </trkpt>
      <trkpt lat="46.6429" lon="-1.70866">
        <ele>58</ele>
        <time>2018-03-21T04:42:21Z</time>
      </trkpt>
      <trkpt lat="46.64337" lon="-1.70835">
        <ele>60</ele>
        <time>2018-03-21T04:43:21Z</time>
      </trkpt>
      <trkpt lat="46.64369" lon="-1.70799">
        <ele>59</ele>
        <time>2018-03-21T04:44:21Z</time>
      </trkpt>
      <trkpt lat="46.64408" lon="-1.70734">
        <ele>60</ele>
        <time>2018-03-21T04:45:21Z</time>
      </trkpt>
      <trkpt lat="46.64445" lon="-1.70683">
        <ele>59</ele>
        <time>2018-03-21T04:46:21Z</time>
      </trkpt>
      <trkpt lat="46.64481" lon="-1.70659">
        <ele>59</ele>
        <time>2018-03-21T04:47:21Z</time>
      </trkpt>
      <trkpt lat="46.64561" lon="-1.70615">
        <ele>56</ele>
        <time>2018-03-21T04:48:21Z</time>
      </trkpt>
      <trkpt lat="46.64592" lon="-1.70583">
        <ele>55</ele>
        <time>2018-03-21T04:49:21Z</time>
      </trkpt>
      <trkpt lat="46.64629" lon="-1.70536">
        <ele>53</ele>
        <time>2018-03-21T04:50:21Z</time>
      </trkpt>
      <trkpt lat="46.64707" lon="-1.70478">
        <ele>50</ele>
        <time>2018-03-21T04:51:21Z</time>
      </trkpt>
      <trkpt lat="46.64719" lon="-1.70461">
        <ele>49</ele>
        <time>2018-03-21T04:52:21Z</time>
      </trkpt>
      <trkpt lat="46.64804" lon="-1.70418">
        <ele>46</ele>
        <time>2018-03-21T04:53:21Z</time>
      </trkpt>
      <trkpt lat="46.64889" lon="-1.70381">
        <ele>43</ele>
        <time>2018-03-21T04:54:21Z</time>
      </trkpt>
      <trkpt lat="46.65271" lon="-1.7032">
        <ele>34</ele>
        <time>2018-03-21T04:55:21Z</time>
      </trkpt>
      <trkpt lat="46.6532" lon="-1.70295">
        <ele>35</ele>
        <time>2018-03-21T04:56:21Z</time>
      </trkpt>
      <trkpt lat="46.65351" lon="-1.70269">
        <ele>37</ele>
        <time>2018-03-21T04:57:21Z</time>
      </trkpt>
      <trkpt lat="46.65403" lon="-1.70237">
        <ele>42</ele>
        <time>2018-03-21T04:58:21Z</time>
      </trkpt>
      <trkpt lat="46.65427" lon="-1.70217">
        <ele>45</ele>
        <time>2018-03-21T04:59:21Z</time>
      </trkpt>
      <trkpt lat="46.65437" lon="-1.70202">
        <ele>46</ele>
        <time>2018-03-21T05:00:21Z</time>
      </trkpt>
      <trkpt lat="46.65447" lon="-1.70178">
        <ele>48</ele>
        <time>2018-03-21T05:01:21Z</time>
      </trkpt>
      <trkpt lat="46.65483" lon="-1.6999">
        <ele>56</ele>
        <time>2018-03-21T05:02:21Z</time>
      </trkpt>
      <trkpt lat="46.65626" lon="-1.69604">
        <ele>49</ele>
        <time>2018-03-21T05:03:21Z</time>
      </trkpt>
      <trkpt lat="46.65786" lon="-1.69166">
        <ele>47</ele>
        <time>2018-03-21T05:04:21Z</time>
      </trkpt>
      <trkpt lat="46.658" lon="-1.6913">
        <ele>48</ele>
        <time>2018-03-21T05:05:21Z</time>
      </trkpt>
      <trkpt lat="46.658" lon="-1.6913">
        <ele>48</ele>
        <time>2018-03-21T05:06:21Z</time>
      </trkpt>
      <trkpt lat="46.65833" lon="-1.69048">
        <ele>50</ele>
        <time>2018-03-21T05:07:21Z</time>
      </trkpt>
      <trkpt lat="46.65885" lon="-1.68963">
        <ele>53</ele>
        <time>2018-03-21T05:08:21Z</time>
      </trkpt>
      <trkpt lat="46.66334" lon="-1.68322">
        <ele>52</ele>
        <time>2018-03-21T05:09:21Z</time>
      </trkpt>
      <trkpt lat="46.66364" lon="-1.68304">
        <ele>51</ele>
        <time>2018-03-21T05:10:21Z</time>
      </trkpt>
      <trkpt lat="46.66388" lon="-1.68293">
        <ele>51</ele>
        <time>2018-03-21T05:11:21Z</time>
      </trkpt>
      <trkpt lat="46.66413" lon="-1.68288">
        <ele>51</ele>
        <time>2018-03-21T05:12:21Z</time>
      </trkpt>
      <trkpt lat="46.66612" lon="-1.68266">
        <ele>49</ele>
        <time>2018-03-21T05:13:21Z</time>
      </trkpt>
      <trkpt lat="46.66645" lon="-1.68258">
        <ele>48</ele>
        <time>2018-03-21T05:14:21Z</time>
      </trkpt>
      <trkpt lat="46.67006" lon="-1.6815">
        <ele>44</ele>
        <time>2018-03-21T05:15:21Z</time>
      </trkpt>
      <trkpt lat="46.67072" lon="-1.68127">
        <ele>43</ele>
        <time>2018-03-21T05:16:21Z</time>
      </trkpt>
      <trkpt lat="46.67161" lon="-1.68091">
        <ele>42</ele>
        <time>2018-03-21T05:17:21Z</time>
      </trkpt>
      <trkpt lat="46.67239" lon="-1.68071">
        <ele>43</ele>
        <time>2018-03-21T05:18:21Z</time>
      </trkpt>
      <trkpt lat="46.67463" lon="-1.68026">
        <ele>42</ele>
        <time>2018-03-21T05:19:21Z</time>
      </trkpt>
      <trkpt lat="46.67524" lon="-1.67994">
        <ele>41</ele>
        <time>2018-03-21T05:20:21Z</time>
      </trkpt>
      <trkpt lat="46.67566" lon="-1.67965">
        <ele>39</ele>
        <time>2018-03-21T05:21:21Z</time>
      </trkpt>
      <trkpt lat="46.67625" lon="-1.67888">
        <ele>36</ele>
        <time>2018-03-21T05:22:21Z</time>
      </trkpt>
      <trkpt lat="46.67634" lon="-1.67867">
        <ele>36</ele>
        <time>2018-03-21T05:23:21Z</time>
      </trkpt>
      <trkpt lat="46.67629" lon="-1.67837">
        <ele>36</ele>
        <time>2018-03-21T05:24:21Z</time>
      </trkpt>
      <trkpt lat="46.67621" lon="-1.67805">
        <ele>35</ele>
        <time>2018-03-21T05:25:21Z</time>
      </trkpt>
      <trkpt lat="46.67612" lon="-1.67793">
        <ele>34</ele>
        <time>2018-03-21T05:26:21Z</time>
      </trkpt>
      <trkpt lat="46.676" lon="-1.67786">
        <ele>34</ele>
        <time>2018-03-21T05:27:21Z</time>
      </trkpt>
      <trkpt lat="46.6754" lon="-1.67777">
        <ele>34</ele>
        <time>2018-03-21T05:28:21Z</time>
      </trkpt>
      <trkpt lat="46.67512" lon="-1.67776">
        <ele>35</ele>
        <time>2018-03-21T05:29:21Z</time>
      </trkpt>
      <trkpt lat="46.67501" lon="-1.67757">
        <ele>33</ele>
        <time>2018-03-21T05:30:21Z</time>
      </trkpt>
      <trkpt lat="46.67493" lon="-1.67621">
        <ele>27</ele>
        <time>2018-03-21T05:31:21Z</time>
      </trkpt>
      <trkpt lat="46.67496" lon="-1.67587">
        <ele>27</ele>
        <time>2018-03-21T05:32:21Z</time>
      </trkpt>
      <trkpt lat="46.67514" lon="-1.67471">
        <ele>35</ele>
        <time>2018-03-21T05:33:21Z</time>
      </trkpt>
      <trkpt lat="46.67544" lon="-1.67329">
        <ele>39</ele>
        <time>2018-03-21T05:34:21Z</time>
      </trkpt>
      <trkpt lat="46.67587" lon="-1.67089">
        <ele>42</ele>
        <time>2018-03-21T05:35:21Z</time>
      </trkpt>
      <trkpt lat="46.67605" lon="-1.66922">
        <ele>42</ele>
        <time>2018-03-21T05:36:21Z</time>
      </trkpt>
      <trkpt lat="46.67602" lon="-1.66763">
        <ele>43</ele>
        <time>2018-03-21T05:37:21Z</time>
      </trkpt>
      <trkpt lat="46.67556" lon="-1.65754">
        <ele>47</ele>
        <time>2018-03-21T05:38:21Z</time>
      </trkpt>
      <trkpt lat="46.67521" lon="-1.65225">
        <ele>45</ele>
        <time>2018-03-21T05:39:21Z</time>
      </trkpt>
      <trkpt lat="46.67512" lon="-1.65137">
        <ele>46</ele>
        <time>2018-03-21T05:40:21Z</time>
      </trkpt>
      <trkpt lat="46.67499" lon="-1.64962">
        <ele>48</ele>
        <time>2018-03-21T05:41:21Z</time>
      </trkpt>
      <trkpt lat="46.67469" lon="-1.64889">
        <ele>47</ele>
        <time>2018-03-21T05:42:21Z</time>
      </trkpt>
      <trkpt lat="46.67325" lon="-1.64656">
        <ele>41</ele>
        <time>2018-03-21T05:43:21Z</time>
      </trkpt>
      <trkpt lat="46.67278" lon="-1.64536">
        <ele>38</ele>
        <time>2018-03-21T05:44:21Z</time>
      </trkpt>
      <trkpt lat="46.67257" lon="-1.64433">
        <ele>39</ele>
        <time>2018-03-21T05:45:21Z</time>
      </trkpt>
      <trkpt lat="46.67251" lon="-1.6433">
        <ele>41</ele>
        <time>2018-03-21T05:46:21Z</time>
      </trkpt>
      <trkpt lat="46.67273" lon="-1.64187">
        <ele>45</ele>
        <time>2018-03-21T05:47:21Z</time>
      </trkpt>
      <trkpt lat="46.67288" lon="-1.64128">
        <ele>48</ele>
        <time>2018-03-21T05:48:21Z</time>
      </trkpt>
      <trkpt lat="46.6731" lon="-1.64078">
        <ele>52</ele>
        <time>2018-03-21T05:49:21Z</time>
      </trkpt>
      <trkpt lat="46.6731" lon="-1.64078">
        <ele>52</ele>
        <time>2018-03-21T05:50:21Z</time>
      </trkpt>
      <trkpt lat="46.67386" lon="-1.63942">
        <ele>57</ele>
        <time>2018-03-21T05:51:21Z</time>
      </trkpt>
      <trkpt lat="46.67558" lon="-1.63686">
        <ele>48</ele>
        <time>2018-03-21T05:52:21Z</time>
      </trkpt>
      <trkpt lat="46.6762" lon="-1.63563">
        <ele>43</ele>
        <time>2018-03-21T05:53:21Z</time>
      </trkpt>
      <trkpt lat="46.67668" lon="-1.63455">
        <ele>41</ele>
        <time>2018-03-21T05:54:21Z</time>
      </trkpt>
      <trkpt lat="46.67698" lon="-1.63303">
        <ele>45</ele>
        <time>2018-03-21T05:55:21Z</time>
      </trkpt>
      <trkpt lat="46.67706" lon="-1.63274">
        <ele>45</ele>
        <time>2018-03-21T05:56:21Z</time>
      </trkpt>
      <trkpt lat="46.67713" lon="-1.63236">
        <ele>44</ele>
        <time>2018-03-21T05:57:21Z</time>
      </trkpt>
      <trkpt lat="46.6771" lon="-1.63189">
        <ele>44</ele>
        <time>2018-03-21T05:58:21Z</time>
      </trkpt>
      <trkpt lat="46.67701" lon="-1.63143">
        <ele>44</ele>
        <time>2018-03-21T05:59:21Z</time>
      </trkpt>
      <trkpt lat="46.67673" lon="-1.63066">
        <ele>46</ele>
        <time>2018-03-21T06:00:21Z</time>
      </trkpt>
      <trkpt lat="46.67632" lon="-1.62998">
        <ele>46</ele>
        <time>2018-03-21T06:01:21Z</time>
      </trkpt>
      <trkpt lat="46.67613" lon="-1.62959">
        <ele>45</ele>
        <time>2018-03-21T06:02:21Z</time>
      </trkpt>
      <trkpt lat="46.67605" lon="-1.62925">
        <ele>44</ele>
        <time>2018-03-21T06:03:21Z</time>
      </trkpt>
      <trkpt lat="46.67622" lon="-1.62689">
        <ele>35</ele>
        <time>2018-03-21T06:04:21Z</time>
      </trkpt>
      <trkpt lat="46.67633" lon="-1.62621">
        <ele>38</ele>
        <time>2018-03-21T06:05:21Z</time>
      </trkpt>
      <trkpt lat="46.67655" lon="-1.62527">
        <ele>39</ele>
        <time>2018-03-21T06:06:21Z</time>
      </trkpt>
      <trkpt lat="46.67691" lon="-1.62403">
        <ele>41</ele>
        <time>2018-03-21T06:07:21Z</time>
      </trkpt>
      <trkpt lat="46.677" lon="-1.62325">
        <ele>40</ele>
        <time>2018-03-21T06:08:21Z</time>
      </trkpt>
      <trkpt lat="46.677" lon="-1.62267">
        <ele>39</ele>
        <time>2018-03-21T06:09:21Z</time>
      </trkpt>
      <trkpt lat="46.67692" lon="-1.62204">
        <ele>38</ele>
        <time>2018-03-21T06:10:21Z</time>
      </trkpt>
      <trkpt lat="46.67652" lon="-1.62098">
        <ele>35</ele>
        <time>2018-03-21T06:11:21Z</time>
      </trkpt>
      <trkpt lat="46.67639" lon="-1.62056">
        <ele>35</ele>
        <time>2018-03-21T06:12:21Z</time>
      </trkpt>
      <trkpt lat="46.67613" lon="-1.62039">
        <ele>34</ele>
        <time>2018-03-21T06:13:21Z</time>
      </trkpt>
      <trkpt lat="46.67584" lon="-1.62027">
        <ele>34</ele>
        <time>2018-03-21T06:14:21Z</time>
      </trkpt>
      <trkpt lat="46.67569" lon="-1.6201">
        <ele>36</ele>
        <time>2018-03-21T06:15:21Z</time>
      </trkpt>
      <trkpt lat="46.67556" lon="-1.61951">
        <ele>37</ele>
        <time>2018-03-21T06:16:21Z</time>
      </trkpt>
      <trkpt lat="46.67554" lon="-1.61914">
        <ele>37</ele>
        <time>2018-03-21T06:17:21Z</time>
      </trkpt>
      <trkpt lat="46.6756" lon="-1.61878">
        <ele>38</ele>
        <time>2018-03-21T06:18:21Z</time>
      </trkpt>
      <trkpt lat="46.6759" lon="-1.61815">
        <ele>38</ele>
        <time>2018-03-21T06:19:21Z</time>
      </trkpt>
      <trkpt lat="46.67598" lon="-1.61754">
        <ele>38</ele>
        <time>2018-03-21T06:20:21Z</time>
      </trkpt>
      <trkpt lat="46.67609" lon="-1.61596">
        <ele>35</ele>
        <time>2018-03-21T06:21:21Z</time>
      </trkpt>
      <trkpt lat="46.67609" lon="-1.61596">
        <ele>35</ele>
        <time>2018-03-21T06:22:21Z</time>
      </trkpt>
      <trkpt lat="46.67614" lon="-1.61534">
        <ele>36</ele>
        <time>2018-03-21T06:23:21Z</time>
      </trkpt>
      <trkpt lat="46.67615" lon="-1.61475">
        <ele>37</ele>
        <time>2018-03-21T06:24:21Z</time>
      </trkpt>
      <trkpt lat="46.6761" lon="-1.61437">
        <ele>36</ele>
        <time>2018-03-21T06:25:21Z</time>
      </trkpt>
      <trkpt lat="46.67597" lon="-1.61382">
        <ele>36</ele>
        <time>2018-03-21T06:26:21Z</time>
      </trkpt>
      <trkpt lat="46.67597" lon="-1.61372">
        <ele>36</ele>
        <time>2018-03-21T06:27:21Z</time>
      </trkpt>
      <trkpt lat="46.67601" lon="-1.6136">
        <ele>36</ele>
        <time>2018-03-21T06:28:21Z</time>
      </trkpt>
      <trkpt lat="46.67617" lon="-1.6133">
        <ele>38</ele>
        <time>2018-03-21T06:29:21Z</time>
      </trkpt>
      <trkpt lat="46.6762" lon="-1.613">
        <ele>39</ele>
        <time>2018-03-21T06:30:21Z</time>
      </trkpt>
      <trkpt lat="46.67616" lon="-1.61284">
        <ele>39</ele>
        <time>2018-03-21T06:31:21Z</time>
      </trkpt>
      <trkpt lat="46.6765" lon="-1.61284">
        <ele>42</ele>
        <time>2018-03-21T06:32:21Z</time>
      </trkpt>
      <trkpt lat="46.67665" lon="-1.61288">
        <ele>43</ele>
        <time>2018-03-21T06:33:21Z</time>
      </trkpt>
      <trkpt lat="46.67723" lon="-1.61294">
        <ele>45</ele>
        <time>2018-03-21T06:34:21Z</time>
      </trkpt>
      <trkpt lat="46.67804" lon="-1.61316">
        <ele>48</ele>
        <time>2018-03-21T06:35:21Z</time>
      </trkpt>
      <trkpt lat="46.67814" lon="-1.61316">
        <ele>48</ele>
        <time>2018-03-21T06:36:21Z</time>
      </trkpt>
      <trkpt lat="46.67833" lon="-1.61322">
        <ele>48</ele>
        <time>2018-03-21T06:37:21Z</time>
      </trkpt>
      <trkpt lat="46.67842" lon="-1.61319">
        <ele>49</ele>
        <time>2018-03-21T06:38:21Z</time>
      </trkpt>
      <trkpt lat="46.67852" lon="-1.61334">
        <ele>48</ele>
        <time>2018-03-21T06:39:21Z</time>
      </trkpt>
      <trkpt lat="46.67861" lon="-1.61353">
        <ele>48</ele>
        <time>2018-03-21T06:40:21Z</time>
      </trkpt>
      <trkpt lat="46.67882" lon="-1.61474">
        <ele>45</ele>
        <time>2018-03-21T06:41:21Z</time>
      </trkpt>
      <trkpt lat="46.67903" lon="-1.61574">
        <ele>43</ele>
        <time>2018-03-21T06:42:21Z</time>
      </trkpt>
      <trkpt lat="46.67924" lon="-1.6166">
        <ele>42</ele>
        <time>2018-03-21T06:43:21Z</time>
      </trkpt>
      <trkpt lat="46.67946" lon="-1.61684">
        <ele>43</ele>
        <time>2018-03-21T06:44:21Z</time>
      </trkpt>
      <trkpt lat="46.68044" lon="-1.61734">
        <ele>46</ele>
        <time>2018-03-21T06:45:21Z</time>
      </trkpt>
      <trkpt lat="46.68102" lon="-1.61775">
        <ele>46</ele>
        <time>2018-03-21T06:46:21Z</time>
      </trkpt>
      <trkpt lat="46.68127" lon="-1.61801">
        <ele>47</ele>
        <time>2018-03-21T06:47:21Z</time>
      </trkpt>
      <trkpt lat="46.68226" lon="-1.61926">
        <ele>52</ele>
        <time>2018-03-21T06:48:21Z</time>
      </trkpt>
      <trkpt lat="46.68255" lon="-1.61956">
        <ele>53</ele>
        <time>2018-03-21T06:49:21Z</time>
      </trkpt>
      <trkpt lat="46.68343" lon="-1.62075">
        <ele>56</ele>
        <time>2018-03-21T06:50:21Z</time>
      </trkpt>
      <trkpt lat="46.68593" lon="-1.62378">
        <ele>56</ele>
        <time>2018-03-21T06:51:21Z</time>
      </trkpt>
      <trkpt lat="46.6862" lon="-1.6242">
        <ele>56</ele>
        <time>2018-03-21T06:52:21Z</time>
      </trkpt>
      <trkpt lat="46.68683" lon="-1.62565">
        <ele>55</ele>
        <time>2018-03-21T06:53:21Z</time>
      </trkpt>
      <trkpt lat="46.68697" lon="-1.62637">
        <ele>55</ele>
        <time>2018-03-21T06:54:21Z</time>
      </trkpt>
      <trkpt lat="46.68722" lon="-1.63277">
        <ele>48</ele>
        <time>2018-03-21T06:55:21Z</time>
      </trkpt>
      <trkpt lat="46.68725" lon="-1.63323">
        <ele>49</ele>
        <time>2018-03-21T06:56:21Z</time>
      </trkpt>
      <trkpt lat="46.68745" lon="-1.6341">
        <ele>47</ele>
        <time>2018-03-21T06:57:21Z</time>
      </trkpt>
      <trkpt lat="46.68835" lon="-1.63618">
        <ele>41</ele>
        <time>2018-03-21T06:58:21Z</time>
      </trkpt>
      <trkpt lat="46.68894" lon="-1.63803">
        <ele>35</ele>
        <time>2018-03-21T06:59:21Z</time>
      </trkpt>
      <trkpt lat="46.68901" lon="-1.63869">
        <ele>32</ele>
        <time>2018-03-21T07:00:21Z</time>
      </trkpt>
      <trkpt lat="46.68901" lon="-1.63869">
        <ele>32</ele>
        <time>2018-03-21T07:01:21Z</time>
      </trkpt>
      <trkpt lat="46.68904" lon="-1.63901">
        <ele>31</ele>
        <time>2018-03-21T07:02:21Z</time>
      </trkpt>
      <trkpt lat="46.68912" lon="-1.63938">
        <ele>32</ele>
        <time>2018-03-21T07:03:21Z</time>
      </trkpt>
      <trkpt lat="46.69219" lon="-1.64264">
        <ele>39</ele>
        <time>2018-03-21T07:04:21Z</time>
      </trkpt>
      <trkpt lat="46.69633" lon="-1.64566">
        <ele>31</ele>
        <time>2018-03-21T07:05:21Z</time>
      </trkpt>
      <trkpt lat="46.69716" lon="-1.64643">
        <ele>32</ele>
        <time>2018-03-21T07:06:21Z</time>
      </trkpt>
      <trkpt lat="46.69889" lon="-1.65197">
        <ele>29</ele>
        <time>2018-03-21T07:07:21Z</time>
      </trkpt>
      <trkpt lat="46.6991" lon="-1.65258">
        <ele>28</ele>
        <time>2018-03-21T07:08:21Z</time>
      </trkpt>
      <trkpt lat="46.69915" lon="-1.65274">
        <ele>28</ele>
        <time>2018-03-21T07:09:21Z</time>
      </trkpt>
      <trkpt lat="46.69975" lon="-1.65444">
        <ele>33</ele>
        <time>2018-03-21T07:10:21Z</time>
      </trkpt>
      <trkpt lat="46.70028" lon="-1.65538">
        <ele>36</ele>
        <time>2018-03-21T07:11:21Z</time>
      </trkpt>
      <trkpt lat="46.70153" lon="-1.65737">
        <ele>43</ele>
        <time>2018-03-21T07:12:21Z</time>
      </trkpt>
      <trkpt lat="46.70225" lon="-1.65845">
        <ele>42</ele>
        <time>2018-03-21T07:13:21Z</time>
      </trkpt>
      <trkpt lat="46.70432" lon="-1.66188">
        <ele>39</ele>
        <time>2018-03-21T07:14:21Z</time>
      </trkpt>
      <trkpt lat="46.70522" lon="-1.66305">
        <ele>42</ele>
        <time>2018-03-21T07:15:21Z</time>
      </trkpt>
      <trkpt lat="46.70619" lon="-1.66371">
        <ele>42</ele>
        <time>2018-03-21T07:16:21Z</time>
      </trkpt>
      <trkpt lat="46.71061" lon="-1.66723">
        <ele>39</ele>
        <time>2018-03-21T07:17:21Z</time>
      </trkpt>
      <trkpt lat="46.71162" lon="-1.668">
        <ele>40</ele>
        <time>2018-03-21T07:18:21Z</time>
      </trkpt>
      <trkpt lat="46.71333" lon="-1.66938">
        <ele>47</ele>
        <time>2018-03-21T07:19:21Z</time>
      </trkpt>
      <trkpt lat="46.71333" lon="-1.66938">
        <ele>47</ele>
        <time>2018-03-21T07:20:21Z</time>
      </trkpt>
      <trkpt lat="46.71475" lon="-1.67053">
        <ele>51</ele>
        <time>2018-03-21T07:21:21Z</time>
      </trkpt>
      <trkpt lat="46.71636" lon="-1.67191">
        <ele>47</ele>
        <time>2018-03-21T07:22:21Z</time>
      </trkpt>
      <trkpt lat="46.71891" lon="-1.67415">
        <ele>52</ele>
        <time>2018-03-21T07:23:21Z</time>
      </trkpt>
      <trkpt lat="46.72321" lon="-1.68171">
        <ele>49</ele>
        <time>2018-03-21T07:24:21Z</time>
      </trkpt>
      <trkpt lat="46.72339" lon="-1.68199">
        <ele>50</ele>
        <time>2018-03-21T07:25:21Z</time>
      </trkpt>
      <trkpt lat="46.72353" lon="-1.68214">
        <ele>50</ele>
        <time>2018-03-21T07:26:21Z</time>
      </trkpt>
      <trkpt lat="46.72372" lon="-1.68227">
        <ele>51</ele>
        <time>2018-03-21T07:27:21Z</time>
      </trkpt>
      <trkpt lat="46.72383" lon="-1.68232">
        <ele>51</ele>
        <time>2018-03-21T07:28:21Z</time>
      </trkpt>
      <trkpt lat="46.72395" lon="-1.68234">
        <ele>51</ele>
        <time>2018-03-21T07:29:21Z</time>
      </trkpt>
      <trkpt lat="46.72516" lon="-1.68236">
        <ele>50</ele>
        <time>2018-03-21T07:30:21Z</time>
      </trkpt>
      <trkpt lat="46.72547" lon="-1.68239">
        <ele>49</ele>
        <time>2018-03-21T07:31:21Z</time>
      </trkpt>
      <trkpt lat="46.72587" lon="-1.68251">
        <ele>49</ele>
        <time>2018-03-21T07:32:21Z</time>
      </trkpt>
      <trkpt lat="46.72771" lon="-1.68319">
        <ele>48</ele>
        <time>2018-03-21T07:33:21Z</time>
      </trkpt>
      <trkpt lat="46.72823" lon="-1.68335">
        <ele>48</ele>
        <time>2018-03-21T07:34:21Z</time>
      </trkpt>
      <trkpt lat="46.72838" lon="-1.68338">
        <ele>48</ele>
        <time>2018-03-21T07:35:21Z</time>
      </trkpt>
      <trkpt lat="46.72869" lon="-1.68338">
        <ele>48</ele>
        <time>2018-03-21T07:36:21Z</time>
      </trkpt>
      <trkpt lat="46.72978" lon="-1.68318">
        <ele>47</ele>
        <time>2018-03-21T07:37:21Z</time>
      </trkpt>
      <trkpt lat="46.73124" lon="-1.68288">
        <ele>47</ele>
        <time>2018-03-21T07:38:21Z</time>
      </trkpt>
      <trkpt lat="46.73146" lon="-1.68286">
        <ele>46</ele>
        <time>2018-03-21T07:39:21Z</time>
      </trkpt>
      <trkpt lat="46.73391" lon="-1.6829">
        <ele>41</ele>
        <time>2018-03-21T07:40:21Z</time>
      </trkpt>
      <trkpt lat="46.73543" lon="-1.6829">
        <ele>39</ele>
        <time>2018-03-21T07:41:21Z</time>
      </trkpt>
      <trkpt lat="46.73576" lon="-1.68286">
        <ele>40</ele>
        <time>2018-03-21T07:42:21Z</time>
      </trkpt>
      <trkpt lat="46.73598" lon="-1.68279">
        <ele>40</ele>
        <time>2018-03-21T07:43:21Z</time>
      </trkpt>
      <trkpt lat="46.73833" lon="-1.68183">
        <ele>37</ele>
        <time>2018-03-21T07:44:21Z</time>
      </trkpt>
      <trkpt lat="46.73858" lon="-1.68175">
        <ele>37</ele>
        <time>2018-03-21T07:45:21Z</time>
      </trkpt>
      <trkpt lat="46.73887" lon="-1.68173">
        <ele>36</ele>
        <time>2018-03-21T07:46:21Z</time>
      </trkpt>
      <trkpt lat="46.73919" lon="-1.68179">
        <ele>36</ele>
        <time>2018-03-21T07:47:21Z</time>
      </trkpt>
      <trkpt lat="46.74041" lon="-1.68217">
        <ele>35</ele>
        <time>2018-03-21T07:48:21Z</time>
      </trkpt>
      <trkpt lat="46.74074" lon="-1.68223">
        <ele>34</ele>
        <time>2018-03-21T07:49:21Z</time>
      </trkpt>
      <trkpt lat="46.74109" lon="-1.68221">
        <ele>34</ele>
        <time>2018-03-21T07:50:21Z</time>
      </trkpt>
      <trkpt lat="46.74295" lon="-1.68185">
        <ele>32</ele>
        <time>2018-03-21T07:51:21Z</time>
      </trkpt>
      <trkpt lat="46.74316" lon="-1.68175">
        <ele>32</ele>
        <time>2018-03-21T07:52:21Z</time>
      </trkpt>
      <trkpt lat="46.74325" lon="-1.68168">
        <ele>32</ele>
        <time>2018-03-21T07:53:21Z</time>
      </trkpt>
      <trkpt lat="46.74333" lon="-1.68173">
        <ele>32</ele>
        <time>2018-03-21T07:54:21Z</time>
      </trkpt>
      <trkpt lat="46.7454" lon="-1.6824">
        <ele>27</ele>
        <time>2018-03-21T07:55:21Z</time>
      </trkpt>
      <trkpt lat="46.7454" lon="-1.6824">
        <ele>27</ele>
        <time>2018-03-21T07:56:21Z</time>
      </trkpt>
      <trkpt lat="46.74678" lon="-1.68284">
        <ele>23</ele>
        <time>2018-03-21T07:57:21Z</time>
      </trkpt>
      <trkpt lat="46.74653" lon="-1.68336">
        <ele>23</ele>
        <time>2018-03-21T07:58:21Z</time>
      </trkpt>
      <trkpt lat="46.74643" lon="-1.68381">
        <ele>24</ele>
        <time>2018-03-21T07:59:21Z</time>
      </trkpt>
      <trkpt lat="46.74639" lon="-1.68429">
        <ele>24</ele>
        <time>2018-03-21T08:00:21Z</time>
      </trkpt>
      <trkpt lat="46.74645" lon="-1.68487">
        <ele>25</ele>
        <time>2018-03-21T08:01:21Z</time>
      </trkpt>
      <trkpt lat="46.74647" lon="-1.68601">
        <ele>25</ele>
        <time>2018-03-21T08:02:21Z</time>
      </trkpt>
      <trkpt lat="46.74615" lon="-1.68663">
        <ele>23</ele>
        <time>2018-03-21T08:03:21Z</time>
      </trkpt>
      <trkpt lat="46.74589" lon="-1.68691">
        <ele>22</ele>
        <time>2018-03-21T08:04:21Z</time>
      </trkpt>
      <trkpt lat="46.74524" lon="-1.68714">
        <ele>22</ele>
        <time>2018-03-21T08:05:21Z</time>
      </trkpt>
      <trkpt lat="46.74476" lon="-1.68781">
        <ele>22</ele>
        <time>2018-03-21T08:06:21Z</time>
      </trkpt>
      <trkpt lat="46.7443" lon="-1.6885">
        <ele>22</ele>
        <time>2018-03-21T08:07:21Z</time>
      </trkpt>
      <trkpt lat="46.74401" lon="-1.68975">
        <ele>26</ele>
        <time>2018-03-21T08:08:21Z</time>
      </trkpt>
      <trkpt lat="46.7439" lon="-1.69015">
        <ele>27</ele>
        <time>2018-03-21T08:09:21Z</time>
      </trkpt>
      <trkpt lat="46.74284" lon="-1.69224">
        <ele>35</ele>
        <time>2018-03-21T08:10:21Z</time>
      </trkpt>
      <trkpt lat="46.74262" lon="-1.6927">
        <ele>37</ele>
        <time>2018-03-21T08:11:21Z</time>
      </trkpt>
      <trkpt lat="46.74254" lon="-1.69701">
        <ele>37</ele>
        <time>2018-03-21T08:12:21Z</time>
      </trkpt>
      <trkpt lat="46.74249" lon="-1.69787">
        <ele>37</ele>
        <time>2018-03-21T08:13:21Z</time>
      </trkpt>
      <trkpt lat="46.74238" lon="-1.69873">
        <ele>36</ele>
        <time>2018-03-21T08:14:21Z</time>
      </trkpt>
      <trkpt lat="46.74221" lon="-1.70025">
        <ele>36</ele>
        <time>2018-03-21T08:15:21Z</time>
      </trkpt>
      <trkpt lat="46.74207" lon="-1.70209">
        <ele>32</ele>
        <time>2018-03-21T08:16:21Z</time>
      </trkpt>
      <trkpt lat="46.74202" lon="-1.70297">
        <ele>32</ele>
        <time>2018-03-21T08:17:21Z</time>
      </trkpt>
      <trkpt lat="46.74209" lon="-1.70415">
        <ele>29</ele>
        <time>2018-03-21T08:18:21Z</time>
      </trkpt>
      <trkpt lat="46.74186" lon="-1.70521">
        <ele>31</ele>
        <time>2018-03-21T08:19:21Z</time>
      </trkpt>
      <trkpt lat="46.74182" lon="-1.7058">
        <ele>33</ele>
        <time>2018-03-21T08:20:21Z</time>
      </trkpt>
      <trkpt lat="46.74202" lon="-1.70687">
        <ele>37</ele>
        <time>2018-03-21T08:21:21Z</time>
      </trkpt>
      <trkpt lat="46.74202" lon="-1.70742">
        <ele>38</ele>
        <time>2018-03-21T08:22:21Z</time>
      </trkpt>
      <trkpt lat="46.74191" lon="-1.70816">
        <ele>40</ele>
        <time>2018-03-21T08:23:21Z</time>
      </trkpt>
      <trkpt lat="46.74165" lon="-1.70913">
        <ele>42</ele>
        <time>2018-03-21T08:24:21Z</time>
      </trkpt>
      <trkpt lat="46.74158" lon="-1.70973">
        <ele>43</ele>
        <time>2018-03-21T08:25:21Z</time>
      </trkpt>
      <trkpt lat="46.74168" lon="-1.71075">
        <ele>42</ele>
        <time>2018-03-21T08:26:21Z</time>
      </trkpt>
      <trkpt lat="46.74176" lon="-1.71228">
        <ele>37</ele>
        <time>2018-03-21T08:27:21Z</time>
      </trkpt>
      <trkpt lat="46.7419" lon="-1.713">
        <ele>36</ele>
        <time>2018-03-21T08:28:21Z</time>
      </trkpt>
      <trkpt lat="46.74193" lon="-1.7139">
        <ele>37</ele>
        <time>2018-03-21T08:29:21Z</time>
      </trkpt>
      <trkpt lat="46.74185" lon="-1.71507">
        <ele>38</ele>
        <time>2018-03-21T08:30:21Z</time>
      </trkpt>
      <trkpt lat="46.74137" lon="-1.71679">
        <ele>43</ele>
        <time>2018-03-21T08:31:21Z</time>
      </trkpt>
      <trkpt lat="46.74122" lon="-1.71815">
        <ele>44</ele>
        <time>2018-03-21T08:32:21Z</time>
      </trkpt>
      <trkpt lat="46.74124" lon="-1.71945">
        <ele>41</ele>
        <time>2018-03-21T08:33:21Z</time>
      </trkpt>
      <trkpt lat="46.74111" lon="-1.72067">
        <ele>40</ele>
        <time>2018-03-21T08:34:21Z</time>
      </trkpt>
      <trkpt lat="46.74095" lon="-1.72201">
        <ele>40</ele>
        <time>2018-03-21T08:35:21Z</time>
      </trkpt>
      <trkpt lat="46.74087" lon="-1.72302">
        <ele>38</ele>
        <time>2018-03-21T08:36:21Z</time>
      </trkpt>
      <trkpt lat="46.74072" lon="-1.72541">
        <ele>38</ele>
        <time>2018-03-21T08:37:21Z</time>
      </trkpt>
      <trkpt lat="46.74079" lon="-1.72613">
        <ele>38</ele>
        <time>2018-03-21T08:38:21Z</time>
      </trkpt>
      <trkpt lat="46.74116" lon="-1.72757">
        <ele>41</ele>
        <time>2018-03-21T08:39:21Z</time>
      </trkpt>
      <trkpt lat="46.74122" lon="-1.72805">
        <ele>39</ele>
        <time>2018-03-21T08:40:21Z</time>
      </trkpt>
      <trkpt lat="46.74122" lon="-1.72854">
        <ele>39</ele>
        <time>2018-03-21T08:41:21Z</time>
      </trkpt>
      <trkpt lat="46.74115" lon="-1.72946">
        <ele>39</ele>
        <time>2018-03-21T08:42:21Z</time>
      </trkpt>
      <trkpt lat="46.74091" lon="-1.73293">
        <ele>39</ele>
        <time>2018-03-21T08:43:21Z</time>
      </trkpt>
      <trkpt lat="46.74088" lon="-1.73428">
        <ele>39</ele>
        <time>2018-03-21T08:44:21Z</time>
      </trkpt>
      <trkpt lat="46.74101" lon="-1.73518">
        <ele>39</ele>
        <time>2018-03-21T08:45:21Z</time>
      </trkpt>
      <trkpt lat="46.74116" lon="-1.73577">
        <ele>39</ele>
        <time>2018-03-21T08:46:21Z</time>
      </trkpt>
      <trkpt lat="46.74131" lon="-1.7363">
        <ele>39</ele>
        <time>2018-03-21T08:47:21Z</time>
      </trkpt>
      <trkpt lat="46.74181" lon="-1.73829">
        <ele>37</ele>
        <time>2018-03-21T08:48:21Z</time>
      </trkpt>
      <trkpt lat="46.74209" lon="-1.7389">
        <ele>36</ele>
        <time>2018-03-21T08:49:21Z</time>
      </trkpt>
      <trkpt lat="46.74242" lon="-1.73929">
        <ele>36</ele>
        <time>2018-03-21T08:50:21Z</time>
      </trkpt>
      <trkpt lat="46.74279" lon="-1.73965">
        <ele>35</ele>
        <time>2018-03-21T08:51:21Z</time>
      </trkpt>
      <trkpt lat="46.74352" lon="-1.74009">
        <ele>33</ele>
        <time>2018-03-21T08:52:21Z</time>
      </trkpt>
      <trkpt lat="46.74433" lon="-1.74073">
        <ele>32</ele>
        <time>2018-03-21T08:53:21Z</time>
      </trkpt>
      <trkpt lat="46.74564" lon="-1.74162">
        <ele>26</ele>
        <time>2018-03-21T08:54:21Z</time>
      </trkpt>
      <trkpt lat="46.74593" lon="-1.7417">
        <ele>24</ele>
        <time>2018-03-21T08:55:21Z</time>
      </trkpt>
      <trkpt lat="46.74617" lon="-1.74181">
        <ele>22</ele>
        <time>2018-03-21T08:56:21Z</time>
      </trkpt>
      <trkpt lat="46.74674" lon="-1.74193">
        <ele>18</ele>
        <time>2018-03-21T08:57:21Z</time>
      </trkpt>
      <trkpt lat="46.74711" lon="-1.74182">
        <ele>15</ele>
        <time>2018-03-21T08:58:21Z</time>
      </trkpt>
      <trkpt lat="46.74719" lon="-1.74178">
        <ele>14</ele>
        <time>2018-03-21T08:59:21Z</time>
      </trkpt>
      <trkpt lat="46.74727" lon="-1.74171">
        <ele>13</ele>
        <time>2018-03-21T09:00:21Z</time>
      </trkpt>
      <trkpt lat="46.74736" lon="-1.74199">
        <ele>13</ele>
        <time>2018-03-21T09:01:21Z</time>
      </trkpt>
      <trkpt lat="46.7474" lon="-1.74227">
        <ele>14</ele>
        <time>2018-03-21T09:02:21Z</time>
      </trkpt>
      <trkpt lat="46.74739" lon="-1.74256">
        <ele>15</ele>
        <time>2018-03-21T09:03:21Z</time>
      </trkpt>
      <trkpt lat="46.74739" lon="-1.74256">
        <ele>15</ele>
        <time>2018-03-21T09:04:21Z</time>
      </trkpt>
      <trkpt lat="46.74734" lon="-1.7433">
        <ele>15</ele>
        <time>2018-03-21T09:05:21Z</time>
      </trkpt>
      <trkpt lat="46.74726" lon="-1.74367">
        <ele>16</ele>
        <time>2018-03-21T09:06:21Z</time>
      </trkpt>
      <trkpt lat="46.74711" lon="-1.74402">
        <ele>17</ele>
        <time>2018-03-21T09:07:21Z</time>
      </trkpt>
      <trkpt lat="46.74696" lon="-1.74435">
        <ele>18</ele>
        <time>2018-03-21T09:08:21Z</time>
      </trkpt>
      <trkpt lat="46.74594" lon="-1.74579">
        <ele>24</ele>
        <time>2018-03-21T09:09:21Z</time>
      </trkpt>
      <trkpt lat="46.74643" lon="-1.74855">
        <ele>24</ele>
        <time>2018-03-21T09:10:21Z</time>
      </trkpt>
      <trkpt lat="46.7465" lon="-1.74918">
        <ele>22</ele>
        <time>2018-03-21T09:11:21Z</time>
      </trkpt>
      <trkpt lat="46.74646" lon="-1.74961">
        <ele>23</ele>
        <time>2018-03-21T09:12:21Z</time>
      </trkpt>
      <trkpt lat="46.74626" lon="-1.75091">
        <ele>26</ele>
        <time>2018-03-21T09:13:21Z</time>
      </trkpt>
      <trkpt lat="46.74601" lon="-1.75212">
        <ele>25</ele>
        <time>2018-03-21T09:14:21Z</time>
      </trkpt>
      <trkpt lat="46.74583" lon="-1.75284">
        <ele>25</ele>
        <time>2018-03-21T09:15:21Z</time>
      </trkpt>
      <trkpt lat="46.74568" lon="-1.75324">
        <ele>25</ele>
        <time>2018-03-21T09:16:21Z</time>
      </trkpt>
      <trkpt lat="46.74438" lon="-1.75638">
        <ele>21</ele>
        <time>2018-03-21T09:17:21Z</time>
      </trkpt>
      <trkpt lat="46.74266" lon="-1.76042">
        <ele>21</ele>
        <time>2018-03-21T09:18:21Z</time>
      </trkpt>
      <trkpt lat="46.74237" lon="-1.76107">
        <ele>21</ele>
        <time>2018-03-21T09:19:21Z</time>
      </trkpt>
      <trkpt lat="46.74179" lon="-1.76215">
        <ele>23</ele>
        <time>2018-03-21T09:20:21Z</time>
      </trkpt>
      <trkpt lat="46.7416" lon="-1.76261">
        <ele>24</ele>
        <time>2018-03-21T09:21:21Z</time>
      </trkpt>
      <trkpt lat="46.74147" lon="-1.76312">
        <ele>22</ele>
        <time>2018-03-21T09:22:21Z</time>
      </trkpt>
      <trkpt lat="46.7414" lon="-1.76361">
        <ele>21</ele>
        <time>2018-03-21T09:23:21Z</time>
      </trkpt>
      <trkpt lat="46.7414" lon="-1.76908">
        <ele>11</ele>
        <time>2018-03-21T09:24:21Z</time>
      </trkpt>
      <trkpt lat="46.74136" lon="-1.76968">
        <ele>10</ele>
        <time>2018-03-21T09:25:21Z</time>
      </trkpt>
      <trkpt lat="46.74126" lon="-1.77018">
        <ele>11</ele>
        <time>2018-03-21T09:26:21Z</time>
      </trkpt>
      <trkpt lat="46.73996" lon="-1.77417">
        <ele>16</ele>
        <time>2018-03-21T09:27:21Z</time>
      </trkpt>
      <trkpt lat="46.73981" lon="-1.77474">
        <ele>17</ele>
        <time>2018-03-21T09:28:21Z</time>
      </trkpt>
      <trkpt lat="46.73931" lon="-1.78102">
        <ele>20</ele>
        <time>2018-03-21T09:29:21Z</time>
      </trkpt>
      <trkpt lat="46.73924" lon="-1.78167">
        <ele>20</ele>
        <time>2018-03-21T09:30:21Z</time>
      </trkpt>
      <trkpt lat="46.73872" lon="-1.78381">
        <ele>18</ele>
        <time>2018-03-21T09:31:21Z</time>
      </trkpt>
      <trkpt lat="46.73864" lon="-1.78423">
        <ele>16</ele>
        <time>2018-03-21T09:32:21Z</time>
      </trkpt>
      <trkpt lat="46.7386" lon="-1.78458">
        <ele>15</ele>
        <time>2018-03-21T09:33:21Z</time>
      </trkpt>
      <trkpt lat="46.73863" lon="-1.78502">
        <ele>14</ele>
        <time>2018-03-21T09:34:21Z</time>
      </trkpt>
      <trkpt lat="46.73867" lon="-1.78533">
        <ele>15</ele>
        <time>2018-03-21T09:35:21Z</time>
      </trkpt>
      <trkpt lat="46.73886" lon="-1.78589">
        <ele>15</ele>
        <time>2018-03-21T09:36:21Z</time>
      </trkpt>
      <trkpt lat="46.73893" lon="-1.78602">
        <ele>15</ele>
        <time>2018-03-21T09:37:21Z</time>
      </trkpt>
      <trkpt lat="46.73937" lon="-1.7871">
        <ele>15</ele>
        <time>2018-03-21T09:38:21Z</time>
      </trkpt>
      <trkpt lat="46.73964" lon="-1.78772">
        <ele>16</ele>
        <time>2018-03-21T09:39:21Z</time>
      </trkpt>
      <trkpt lat="46.73996" lon="-1.78834">
        <ele>18</ele>
        <time>2018-03-21T09:40:21Z</time>
      </trkpt>
      <trkpt lat="46.74021" lon="-1.7892">
        <ele>21</ele>
        <time>2018-03-21T09:41:21Z</time>
      </trkpt>
      <trkpt lat="46.74027" lon="-1.78996">
        <ele>22</ele>
        <time>2018-03-21T09:42:21Z</time>
      </trkpt>
      <trkpt lat="46.74022" lon="-1.79142">
        <ele>23</ele>
        <time>2018-03-21T09:43:21Z</time>
      </trkpt>
      <trkpt lat="46.74016" lon="-1.79168">
        <ele>23</ele>
        <time>2018-03-21T09:44:21Z</time>
      </trkpt>
      <trkpt lat="46.74324" lon="-1.79264">
        <ele>21</ele>
        <time>2018-03-21T09:45:21Z</time>
      </trkpt>
      <trkpt lat="46.74324" lon="-1.79264">
        <ele>21</ele>
        <time>2018-03-21T09:46:21Z</time>
      </trkpt>
      <trkpt lat="46.74379" lon="-1.79282">
        <ele>19</ele>
        <time>2018-03-21T09:47:21Z</time>
      </trkpt>
      <trkpt lat="46.74428" lon="-1.79309">
        <ele>18</ele>
        <time>2018-03-21T09:48:21Z</time>
      </trkpt>
      <trkpt lat="46.74468" lon="-1.79353">
        <ele>17</ele>
        <time>2018-03-21T09:49:21Z</time>
      </trkpt>
      <trkpt lat="46.74501" lon="-1.79426">
        <ele>17</ele>
        <time>2018-03-21T09:50:21Z</time>
      </trkpt>
      <trkpt lat="46.74558" lon="-1.79525">
        <ele>15</ele>
        <time>2018-03-21T09:51:21Z</time>
      </trkpt>
      <trkpt lat="46.74554" lon="-1.79543">
        <ele>16</ele>
        <time>2018-03-21T09:52:21Z</time>
      </trkpt>
      <trkpt lat="46.7456" lon="-1.79569">
        <ele>16</ele>
        <time>2018-03-21T09:53:21Z</time>
      </trkpt>
      <trkpt lat="46.74577" lon="-1.79603">
        <ele>15</ele>
        <time>2018-03-21T09:54:21Z</time>
      </trkpt>
      <trkpt lat="46.74609" lon="-1.79796">
        <ele>15</ele>
        <time>2018-03-21T09:55:21Z</time>
      </trkpt>
      <trkpt lat="46.74616" lon="-1.7985">
        <ele>15</ele>
        <time>2018-03-21T09:56:21Z</time>
      </trkpt>
      <trkpt lat="46.74617" lon="-1.79893">
        <ele>15</ele>
        <time>2018-03-21T09:57:21Z</time>
      </trkpt>
      <trkpt lat="46.74604" lon="-1.80102">
        <ele>17</ele>
        <time>2018-03-21T09:58:21Z</time>
      </trkpt>
      <trkpt lat="46.74597" lon="-1.80154">
        <ele>17</ele>
        <time>2018-03-21T09:59:21Z</time>
      </trkpt>
      <trkpt lat="46.74581" lon="-1.80208">
        <ele>18</ele>
        <time>2018-03-21T10:00:21Z</time>
      </trkpt>
      <trkpt lat="46.74562" lon="-1.80245">
        <ele>18</ele>
        <time>2018-03-21T10:01:21Z</time>
      </trkpt>
      <trkpt lat="46.74224" lon="-1.80735">
        <ele>19</ele>
        <time>2018-03-21T10:02:21Z</time>
      </trkpt>
      <trkpt lat="46.74205" lon="-1.80771">
        <ele>20</ele>
        <time>2018-03-21T10:03:21Z</time>
      </trkpt>
      <trkpt lat="46.74185" lon="-1.80834">
        <ele>21</ele>
        <time>2018-03-21T10:04:21Z</time>
      </trkpt>
      <trkpt lat="46.74071" lon="-1.81332">
        <ele>23</ele>
        <time>2018-03-21T10:05:21Z</time>
      </trkpt>
      <trkpt lat="46.74067" lon="-1.81367">
        <ele>23</ele>
        <time>2018-03-21T10:06:21Z</time>
      </trkpt>
      <trkpt lat="46.74067" lon="-1.81408">
        <ele>22</ele>
        <time>2018-03-21T10:07:21Z</time>
      </trkpt>
      <trkpt lat="46.74082" lon="-1.81832">
        <ele>18</ele>
        <time>2018-03-21T10:08:21Z</time>
      </trkpt>
      <trkpt lat="46.74086" lon="-1.81897">
        <ele>16</ele>
        <time>2018-03-21T10:09:21Z</time>
      </trkpt>
      <trkpt lat="46.74107" lon="-1.82009">
        <ele>16</ele>
        <time>2018-03-21T10:10:21Z</time>
      </trkpt>
      <trkpt lat="46.74112" lon="-1.82052">
        <ele>16</ele>
        <time>2018-03-21T10:11:21Z</time>
      </trkpt>
      <trkpt lat="46.74113" lon="-1.82073">
        <ele>16</ele>
        <time>2018-03-21T10:12:21Z</time>
      </trkpt>
      <trkpt lat="46.74108" lon="-1.82098">
        <ele>16</ele>
        <time>2018-03-21T10:13:21Z</time>
      </trkpt>
      <trkpt lat="46.74099" lon="-1.82108">
        <ele>17</ele>
        <time>2018-03-21T10:14:21Z</time>
      </trkpt>
      <trkpt lat="46.74075" lon="-1.82118">
        <ele>17</ele>
        <time>2018-03-21T10:15:21Z</time>
      </trkpt>
      <trkpt lat="46.74033" lon="-1.82147">
        <ele>17</ele>
        <time>2018-03-21T10:16:21Z</time>
      </trkpt>
      <trkpt lat="46.74007" lon="-1.82159">
        <ele>17</ele>
        <time>2018-03-21T10:17:21Z</time>
      </trkpt>
      <trkpt lat="46.73979" lon="-1.82273">
        <ele>15</ele>
        <time>2018-03-21T10:18:21Z</time>
      </trkpt>
      <trkpt lat="46.73971" lon="-1.82302">
        <ele>15</ele>
        <time>2018-03-21T10:19:21Z</time>
      </trkpt>
      <trkpt lat="46.73961" lon="-1.82327">
        <ele>14</ele>
        <time>2018-03-21T10:20:21Z</time>
      </trkpt>
      <trkpt lat="46.73959" lon="-1.82353">
        <ele>14</ele>
        <time>2018-03-21T10:21:21Z</time>
      </trkpt>
      <trkpt lat="46.73954" lon="-1.82372">
        <ele>13</ele>
        <time>2018-03-21T10:22:21Z</time>
      </trkpt>
      <trkpt lat="46.73844" lon="-1.82796">
        <ele>15</ele>
        <time>2018-03-21T10:23:21Z</time>
      </trkpt>
      <trkpt lat="46.73821" lon="-1.82878">
        <ele>17</ele>
        <time>2018-03-21T10:24:21Z</time>
      </trkpt>
      <trkpt lat="46.7381" lon="-1.82904">
        <ele>17</ele>
        <time>2018-03-21T10:25:21Z</time>
      </trkpt>
      <trkpt lat="46.738" lon="-1.82921">
        <ele>17</ele>
        <time>2018-03-21T10:26:21Z</time>
      </trkpt>
      <trkpt lat="46.73769" lon="-1.82958">
        <ele>18</ele>
        <time>2018-03-21T10:27:21Z</time>
      </trkpt>
      <trkpt lat="46.73631" lon="-1.83061">
        <ele>21</ele>
        <time>2018-03-21T10:28:21Z</time>
      </trkpt>
      <trkpt lat="46.73611" lon="-1.83089">
        <ele>20</ele>
        <time>2018-03-21T10:29:21Z</time>
      </trkpt>
      <trkpt lat="46.73595" lon="-1.83131">
        <ele>20</ele>
        <time>2018-03-21T10:30:21Z</time>
      </trkpt>
      <trkpt lat="46.73559" lon="-1.83277">
        <ele>21</ele>
        <time>2018-03-21T10:31:21Z</time>
      </trkpt>
      <trkpt lat="46.73544" lon="-1.83325">
        <ele>21</ele>
        <time>2018-03-21T10:32:21Z</time>
      </trkpt>
      <trkpt lat="46.73526" lon="-1.83363">
        <ele>21</ele>
        <time>2018-03-21T10:33:21Z</time>
      </trkpt>
      <trkpt lat="46.73429" lon="-1.8348">
        <ele>22</ele>
        <time>2018-03-21T10:34:21Z</time>
      </trkpt>
      <trkpt lat="46.73415" lon="-1.83504">
        <ele>22</ele>
        <time>2018-03-21T10:35:21Z</time>
      </trkpt>
      <trkpt lat="46.73404" lon="-1.83538">
        <ele>22</ele>
        <time>2018-03-21T10:36:21Z</time>
      </trkpt>
      <trkpt lat="46.73395" lon="-1.83574">
        <ele>21</ele>
        <time>2018-03-21T10:37:21Z</time>
      </trkpt>
      <trkpt lat="46.73371" lon="-1.83743">
        <ele>20</ele>
        <time>2018-03-21T10:38:21Z</time>
      </trkpt>
      <trkpt lat="46.73359" lon="-1.83844">
        <ele>20</ele>
        <time>2018-03-21T10:39:21Z</time>
      </trkpt>
      <trkpt lat="46.73356" lon="-1.83901">
        <ele>20</ele>
        <time>2018-03-21T10:40:21Z</time>
      </trkpt>
      <trkpt lat="46.7336" lon="-1.84135">
        <ele>21</ele>
        <time>2018-03-21T10:41:21Z</time>
      </trkpt>
      <trkpt lat="46.7336" lon="-1.8429">
        <ele>21</ele>
        <time>2018-03-21T10:42:21Z</time>
      </trkpt>
      <trkpt lat="46.73358" lon="-1.84337">
        <ele>20</ele>
        <time>2018-03-21T10:43:21Z</time>
      </trkpt>
      <trkpt lat="46.73296" lon="-1.84696">
        <ele>20</ele>
        <time>2018-03-21T10:44:21Z</time>
      </trkpt>
      <trkpt lat="46.7307" lon="-1.85348">
        <ele>11</ele>
        <time>2018-03-21T10:45:21Z</time>
      </trkpt>
      <trkpt lat="46.73051" lon="-1.85437">
        <ele>11</ele>
        <time>2018-03-21T10:46:21Z</time>
      </trkpt>
      <trkpt lat="46.7305" lon="-1.85492">
        <ele>12</ele>
        <time>2018-03-21T10:47:21Z</time>
      </trkpt>
      <trkpt lat="46.7306" lon="-1.85586">
        <ele>12</ele>
        <time>2018-03-21T10:48:21Z</time>
      </trkpt>
      <trkpt lat="46.73086" lon="-1.85759">
        <ele>12</ele>
        <time>2018-03-21T10:49:21Z</time>
      </trkpt>
      <trkpt lat="46.73134" lon="-1.85966">
        <ele>11</ele>
        <time>2018-03-21T10:50:21Z</time>
      </trkpt>
      <trkpt lat="46.73141" lon="-1.86043">
        <ele>11</ele>
        <time>2018-03-21T10:51:21Z</time>
      </trkpt>
      <trkpt lat="46.73133" lon="-1.86308">
        <ele>10</ele>
        <time>2018-03-21T10:52:21Z</time>
      </trkpt>
      <trkpt lat="46.73131" lon="-1.86464">
        <ele>10</ele>
        <time>2018-03-21T10:53:21Z</time>
      </trkpt>
      <trkpt lat="46.73133" lon="-1.86527">
        <ele>11</ele>
        <time>2018-03-21T10:54:21Z</time>
      </trkpt>
      <trkpt lat="46.73143" lon="-1.86602">
        <ele>10</ele>
        <time>2018-03-21T10:55:21Z</time>
      </trkpt>
      <trkpt lat="46.73199" lon="-1.86973">
        <ele>9</ele>
        <time>2018-03-21T10:56:21Z</time>
      </trkpt>
      <trkpt lat="46.73213" lon="-1.87154">
        <ele>11</ele>
        <time>2018-03-21T10:57:21Z</time>
      </trkpt>
      <trkpt lat="46.73218" lon="-1.8717">
        <ele>11</ele>
        <time>2018-03-21T10:58:21Z</time>
      </trkpt>
      <trkpt lat="46.73218" lon="-1.87181">
        <ele>11</ele>
        <time>2018-03-21T10:59:21Z</time>
      </trkpt>
      <trkpt lat="46.73212" lon="-1.87196">
        <ele>11</ele>
        <time>2018-03-21T11:00:21Z</time>
      </trkpt>
      <trkpt lat="46.73207" lon="-1.87201">
        <ele>11</ele>
        <time>2018-03-21T11:01:21Z</time>
      </trkpt>
      <trkpt lat="46.732" lon="-1.87204">
        <ele>12</ele>
        <time>2018-03-21T11:02:21Z</time>
      </trkpt>
      <trkpt lat="46.73195" lon="-1.87204">
        <ele>12</ele>
        <time>2018-03-21T11:03:21Z</time>
      </trkpt>
      <trkpt lat="46.73181" lon="-1.8724">
        <ele>12</ele>
        <time>2018-03-21T11:04:21Z</time>
      </trkpt>
      <trkpt lat="46.73104" lon="-1.8749">
        <ele>11</ele>
        <time>2018-03-21T11:05:21Z</time>
      </trkpt>
      <trkpt lat="46.73104" lon="-1.8749">
        <ele>11</ele>
        <time>2018-03-21T11:06:21Z</time>
      </trkpt>
      <trkpt lat="46.73019" lon="-1.87765">
        <ele>11</ele>
        <time>2018-03-21T11:07:21Z</time>
      </trkpt>
      <trkpt lat="46.72988" lon="-1.87861">
        <ele>11</ele>
        <time>2018-03-21T11:08:21Z</time>
      </trkpt>
      <trkpt lat="46.72958" lon="-1.8792">
        <ele>12</ele>
        <time>2018-03-21T11:09:21Z</time>
      </trkpt>
      <trkpt lat="46.7284" lon="-1.88083">
        <ele>12</ele>
        <time>2018-03-21T11:10:21Z</time>
      </trkpt>
      <trkpt lat="46.72752" lon="-1.88217">
        <ele>8</ele>
        <time>2018-03-21T11:11:21Z</time>
      </trkpt>
      <trkpt lat="46.72714" lon="-1.88306">
        <ele>6</ele>
        <time>2018-03-21T11:12:21Z</time>
      </trkpt>
      <trkpt lat="46.72688" lon="-1.88424">
        <ele>5</ele>
        <time>2018-03-21T11:13:21Z</time>
      </trkpt>
      <trkpt lat="46.72653" lon="-1.88818">
        <ele>6</ele>
        <time>2018-03-21T11:14:21Z</time>
      </trkpt>
      <trkpt lat="46.72629" lon="-1.88998">
        <ele>5</ele>
        <time>2018-03-21T11:15:21Z</time>
      </trkpt>
      <trkpt lat="46.7261" lon="-1.89152">
        <ele>6</ele>
        <time>2018-03-21T11:16:21Z</time>
      </trkpt>
      <trkpt lat="46.72588" lon="-1.89298">
        <ele>5</ele>
        <time>2018-03-21T11:17:21Z</time>
      </trkpt>
      <trkpt lat="46.72588" lon="-1.89298">
        <ele>5</ele>
        <time>2018-03-21T11:18:21Z</time>
      </trkpt>
      <trkpt lat="46.72574" lon="-1.89365">
        <ele>5</ele>
        <time>2018-03-21T11:19:21Z</time>
      </trkpt>
      <trkpt lat="46.72557" lon="-1.89427">
        <ele>4</ele>
        <time>2018-03-21T11:20:21Z</time>
      </trkpt>
      <trkpt lat="46.72524" lon="-1.89494">
        <ele>4</ele>
        <time>2018-03-21T11:21:21Z</time>
      </trkpt>
      <trkpt lat="46.72489" lon="-1.89551">
        <ele>4</ele>
        <time>2018-03-21T11:22:21Z</time>
      </trkpt>
      <trkpt lat="46.72461" lon="-1.8959">
        <ele>3</ele>
        <time>2018-03-21T11:23:21Z</time>
      </trkpt>
      <trkpt lat="46.72428" lon="-1.89628">
        <ele>3</ele>
        <time>2018-03-21T11:24:21Z</time>
      </trkpt>
      <trkpt lat="46.72365" lon="-1.89684">
        <ele>4</ele>
        <time>2018-03-21T11:25:21Z</time>
      </trkpt>
      <trkpt lat="46.7225" lon="-1.89771">
        <ele>7</ele>
        <time>2018-03-21T11:26:21Z</time>
      </trkpt>
      <trkpt lat="46.72036" lon="-1.89948">
        <ele>7</ele>
        <time>2018-03-21T11:27:21Z</time>
      </trkpt>
      <trkpt lat="46.72029" lon="-1.89957">
        <ele>7</ele>
        <time>2018-03-21T11:28:21Z</time>
      </trkpt>
      <trkpt lat="46.72007" lon="-1.9">
        <ele>6</ele>
        <time>2018-03-21T11:29:21Z</time>
      </trkpt>
      <trkpt lat="46.71969" lon="-1.90063">
        <ele>6</ele>
        <time>2018-03-21T11:30:21Z</time>
      </trkpt>
      <trkpt lat="46.71959" lon="-1.90132">
        <ele>6</ele>
        <time>2018-03-21T11:31:21Z</time>
      </trkpt>
      <trkpt lat="46.71957" lon="-1.90157">
        <ele>6</ele>
        <time>2018-03-21T11:32:21Z</time>
      </trkpt>
      <trkpt lat="46.71922" lon="-1.90163">
        <ele>8</ele>
        <time>2018-03-21T11:33:21Z</time>
      </trkpt>
      <trkpt lat="46.71911" lon="-1.90172">
        <ele>8</ele>
        <time>2018-03-21T11:34:21Z</time>
      </trkpt>
      <trkpt lat="46.71895" lon="-1.90181">
        <ele>8</ele>
        <time>2018-03-21T11:35:21Z</time>
      </trkpt>
      <trkpt lat="46.71886" lon="-1.90228">
        <ele>8</ele>
        <time>2018-03-21T11:36:21Z</time>
      </trkpt>
      <trkpt lat="46.71881" lon="-1.90264">
        <ele>7</ele>
        <time>2018-03-21T11:37:21Z</time>
      </trkpt>
      <trkpt lat="46.71868" lon="-1.90309">
        <ele>6</ele>
        <time>2018-03-21T11:38:21Z</time>
      </trkpt>
      <trkpt lat="46.71853" lon="-1.90331">
        <ele>6</ele>
        <time>2018-03-21T11:39:21Z</time>
      </trkpt>
      <trkpt lat="46.71764" lon="-1.9044">
        <ele>7</ele>
        <time>2018-03-21T11:40:21Z</time>
      </trkpt>
      <trkpt lat="46.71568" lon="-1.90674">
        <ele>10</ele>
        <time>2018-03-21T11:41:21Z</time>
      </trkpt>
      <trkpt lat="46.71545" lon="-1.90704">
        <ele>10</ele>
        <time>2018-03-21T11:42:21Z</time>
      </trkpt>
      <trkpt lat="46.7154" lon="-1.90713">
        <ele>10</ele>
        <time>2018-03-21T11:43:21Z</time>
      </trkpt>
      <trkpt lat="46.71494" lon="-1.90764">
        <ele>11</ele>
        <time>2018-03-21T11:44:21Z</time>
      </trkpt>
      <trkpt lat="46.71307" lon="-1.90995">
        <ele>12</ele>
        <time>2018-03-21T11:45:21Z</time>
      </trkpt>
      <trkpt lat="46.71282" lon="-1.91032">
        <ele>12</ele>
        <time>2018-03-21T11:46:21Z</time>
      </trkpt>
      <trkpt lat="46.71262" lon="-1.91067">
        <ele>12</ele>
        <time>2018-03-21T11:47:21Z</time>
      </trkpt>
      <trkpt lat="46.71093" lon="-1.91466">
        <ele>15</ele>
        <time>2018-03-21T11:48:21Z</time>
      </trkpt>
      <trkpt lat="46.71077" lon="-1.91493">
        <ele>15</ele>
        <time>2018-03-21T11:49:21Z</time>
      </trkpt>
      <trkpt lat="46.71077" lon="-1.91493">
        <ele>15</ele>
        <time>2018-03-21T11:50:21Z</time>
      </trkpt>
      <trkpt lat="46.71061" lon="-1.91519">
        <ele>16</ele>
        <time>2018-03-21T11:51:21Z</time>
      </trkpt>
      <trkpt lat="46.70872" lon="-1.91769">
        <ele>19</ele>
        <time>2018-03-21T11:52:21Z</time>
      </trkpt>
      <trkpt lat="46.70861" lon="-1.91777">
        <ele>19</ele>
        <time>2018-03-21T11:53:21Z</time>
      </trkpt>
      <trkpt lat="46.70853" lon="-1.91791">
        <ele>19</ele>
        <time>2018-03-21T11:54:21Z</time>
      </trkpt>
      <trkpt lat="46.70802" lon="-1.9185">
        <ele>20</ele>
        <time>2018-03-21T11:55:21Z</time>
      </trkpt>
      <trkpt lat="46.70699" lon="-1.91956">
        <ele>19</ele>
        <time>2018-03-21T11:56:21Z</time>
      </trkpt>
      <trkpt lat="46.70655" lon="-1.91996">
        <ele>19</ele>
        <time>2018-03-21T11:57:21Z</time>
      </trkpt>
      <trkpt lat="46.70651" lon="-1.92004">
        <ele>19</ele>
        <time>2018-03-21T11:58:21Z</time>
      </trkpt>
      <trkpt lat="46.70653" lon="-1.92018">
        <ele>19</ele>
        <time>2018-03-21T11:59:21Z</time>
      </trkpt>
      <trkpt lat="46.70644" lon="-1.92026">
        <ele>19</ele>
        <time>2018-03-21T12:00:21Z</time>
      </trkpt>
      <trkpt lat="46.70641" lon="-1.92058">
        <ele>19</ele>
        <time>2018-03-21T12:01:21Z</time>
      </trkpt>
      <trkpt lat="46.70635" lon="-1.92223">
        <ele>19</ele>
        <time>2018-03-21T12:02:21Z</time>
      </trkpt>
      <trkpt lat="46.70626" lon="-1.92258">
        <ele>19</ele>
        <time>2018-03-21T12:03:21Z</time>
      </trkpt>
      <trkpt lat="46.70602" lon="-1.92305">
        <ele>18</ele>
        <time>2018-03-21T12:04:21Z</time>
      </trkpt>
      <trkpt lat="46.70582" lon="-1.92334">
        <ele>18</ele>
        <time>2018-03-21T12:05:21Z</time>
      </trkpt>
      <trkpt lat="46.70561" lon="-1.92383">
        <ele>17</ele>
        <time>2018-03-21T12:06:21Z</time>
      </trkpt>
      <trkpt lat="46.70522" lon="-1.92557">
        <ele>12</ele>
        <time>2018-03-21T12:07:21Z</time>
      </trkpt>
      <trkpt lat="46.70521" lon="-1.92585">
        <ele>11</ele>
        <time>2018-03-21T12:08:21Z</time>
      </trkpt>
      <trkpt lat="46.70528" lon="-1.92588">
        <ele>12</ele>
        <time>2018-03-21T12:09:21Z</time>
      </trkpt>
      <trkpt lat="46.70531" lon="-1.92597">
        <ele>12</ele>
        <time>2018-03-21T12:10:21Z</time>
      </trkpt>
      <trkpt lat="46.70528" lon="-1.92605">
        <ele>12</ele>
        <time>2018-03-21T12:11:21Z</time>
      </trkpt>
      <trkpt lat="46.70523" lon="-1.92609">
        <ele>11</ele>
        <time>2018-03-21T12:12:21Z</time>
      </trkpt>
      <trkpt lat="46.70517" lon="-1.92606">
        <ele>11</ele>
        <time>2018-03-21T12:13:21Z</time>
      </trkpt>
      <trkpt lat="46.70505" lon="-1.92616">
        <ele>11</ele>
        <time>2018-03-21T12:14:21Z</time>
      </trkpt>
      <trkpt lat="46.70482" lon="-1.92749">
        <ele>8</ele>
        <time>2018-03-21T12:15:21Z</time>
      </trkpt>
      <trkpt lat="46.70452" lon="-1.93236">
        <ele>4</ele>
        <time>2018-03-21T12:16:21Z</time>
      </trkpt>
      <trkpt lat="46.70452" lon="-1.93236">
        <ele>4</ele>
        <time>2018-03-21T12:17:21Z</time>
      </trkpt>
      <trkpt lat="46.70449" lon="-1.93272">
        <ele>3</ele>
        <time>2018-03-21T12:18:21Z</time>
      </trkpt>
      <trkpt lat="46.70432" lon="-1.93269">
        <ele>3</ele>
        <time>2018-03-21T12:19:21Z</time>
      </trkpt>
      <trkpt lat="46.70389" lon="-1.93248">
        <ele>3</ele>
        <time>2018-03-21T12:20:21Z</time>
      </trkpt>
      <trkpt lat="46.70308" lon="-1.93226">
        <ele>2</ele>
        <time>2018-03-21T12:21:21Z</time>
      </trkpt>
      <trkpt lat="46.70305" lon="-1.93235">
        <ele>2</ele>
        <time>2018-03-21T12:22:21Z</time>
      </trkpt>
      <trkpt lat="46.70298" lon="-1.93246">
        <ele>2</ele>
        <time>2018-03-21T12:23:21Z</time>
      </trkpt>
      <trkpt lat="46.70278" lon="-1.93262">
        <ele>2</ele>
        <time>2018-03-21T12:24:21Z</time>
      </trkpt>
      <trkpt lat="46.70253" lon="-1.93277">
        <ele>2</ele>
        <time>2018-03-21T12:25:21Z</time>
      </trkpt>
      <trkpt lat="46.70238" lon="-1.93293">
        <ele>2</ele>
        <time>2018-03-21T12:26:21Z</time>
      </trkpt>
      <trkpt lat="46.70215" lon="-1.93331">
        <ele>1</ele>
        <time>2018-03-21T12:27:21Z</time>
      </trkpt>
      <trkpt lat="46.70197" lon="-1.93355">
        <ele>1</ele>
        <time>2018-03-21T12:28:21Z</time>
      </trkpt>
      <trkpt lat="46.7018" lon="-1.93369">
        <ele>1</ele>
        <time>2018-03-21T12:29:21Z</time>
      </trkpt>
      <trkpt lat="46.70145" lon="-1.9339">
        <ele>1</ele>
        <time>2018-03-21T12:30:21Z</time>
      </trkpt>
      <trkpt lat="46.70141" lon="-1.93394">
        <ele>1</ele>
        <time>2018-03-21T12:31:21Z</time>
      </trkpt>
      <trkpt lat="46.70137" lon="-1.93404">
        <ele>1</ele>
        <time>2018-03-21T12:32:21Z</time>
      </trkpt>
      <trkpt lat="46.70128" lon="-1.9341">
        <ele>1</ele>
        <time>2018-03-21T12:33:21Z</time>
      </trkpt>
      <trkpt lat="46.70123" lon="-1.93409">
        <ele>2</ele>
        <time>2018-03-21T12:34:21Z</time>
      </trkpt>
      <trkpt lat="46.70116" lon="-1.93403">
        <ele>2</ele>
        <time>2018-03-21T12:35:21Z</time>
      </trkpt>
      <trkpt lat="46.70092" lon="-1.93408">
        <ele>2</ele>
        <time>2018-03-21T12:36:21Z</time>
      </trkpt>
      <trkpt lat="46.70086" lon="-1.93406">
        <ele>2</ele>
        <time>2018-03-21T12:37:21Z</time>
      </trkpt>
      <trkpt lat="46.7009" lon="-1.93413">
        <ele>2</ele>
        <time>2018-03-21T12:38:21Z</time>
      </trkpt>
      <trkpt lat="46.70066" lon="-1.93416">
        <ele>2</ele>
        <time>2018-03-21T12:39:21Z</time>
      </trkpt>
      <trkpt lat="46.70062" lon="-1.93421">
        <ele>2</ele>
        <time>2018-03-21T12:40:21Z</time>
      </trkpt>
      <trkpt lat="46.70055" lon="-1.93423">
        <ele>2</ele>
        <time>2018-03-21T12:41:21Z</time>
      </trkpt>
      <trkpt lat="46.70048" lon="-1.93421">
        <ele>2</ele>
        <time>2018-03-21T12:42:21Z</time>
      </trkpt>
      <trkpt lat="46.70045" lon="-1.93416">
        <ele>2</ele>
        <time>2018-03-21T12:43:21Z</time>
      </trkpt>
      <trkpt lat="46.70034" lon="-1.93411">
        <ele>3</ele>
        <time>2018-03-21T12:44:21Z</time>
      </trkpt>
      <trkpt lat="46.70018" lon="-1.93395">
        <ele>3</ele>
        <time>2018-03-21T12:45:21Z</time>
      </trkpt>
      <trkpt lat="46.69984" lon="-1.9338">
        <ele>3</ele>
        <time>2018-03-21T12:46:21Z</time>
      </trkpt>
      <trkpt lat="46.69974" lon="-1.93384">
        <ele>3</ele>
        <time>2018-03-21T12:47:21Z</time>
      </trkpt>
      <trkpt lat="46.69956" lon="-1.93401">
        <ele>3</ele>
        <time>2018-03-21T12:48:21Z</time>
      </trkpt>
      <trkpt lat="46.69919" lon="-1.93404">
        <ele>3</ele>
        <time>2018-03-21T12:49:21Z</time>
      </trkpt>
      <trkpt lat="46.69895" lon="-1.93414">
        <ele>4</ele>
        <time>2018-03-21T12:50:21Z</time>
      </trkpt>
      <trkpt lat="46.69891" lon="-1.93417">
        <ele>4</ele>
        <time>2018-03-21T12:51:21Z</time>
      </trkpt>
    </trkseg>
  </trk>
</gpx>